Wetterdaten: Samstag, 01.06.2013
Datum Zeit Temp. Aussen +5cm Feuchte Auss Luftdruck Regen Sonnenschein Regendauer UV Solar Windben
01.06.2013 00:00 13,4 C 12,3 C 85 % 1011,9 hPa 0,0 l/m 0 min 0 min 0,0 UV-I 0 W/m 20,6 km/h (4 Bft)
01.06.2013 00:02 13,3 C 12,3 C 86 % 1012,0 hPa 0,0 l/m 0 min 0 min 0,0 UV-I 0 W/m 15,4 km/h (3 Bft)
01.06.2013 00:06 13,3 C 11,8 C 86 % 1012,0 hPa 0,0 l/m 0 min 0 min 0,0 UV-I 0 W/m 12,9 km/h (3 Bft)
01.06.2013 00:08 13,2 C 11,8 C 86 % 1011,9 hPa 0,0 l/m 0 min 0 min 0,0 UV-I 0 W/m 15,4 km/h (3 Bft)
01.06.2013 00:10 13,2 C 11,8 C 86 % 1011,9 hPa 0,0 l/m 0 min 0 min 0,0 UV-I 0 W/m 12,9 km/h (3 Bft)
01.06.2013 00:12 13,2 C 11,8 C 86 % 1012,0 hPa 0,0 l/m 0 min 0 min 0,0 UV-I 0 W/m 10,3 km/h (2 Bft)
01.06.2013 00:14 13,1 C 11,8 C 86 % 1012,0 hPa 0,0 l/m 0 min 0 min 0,0 UV-I 0 W/m 15,4 km/h (3 Bft)
01.06.2013 00:16 13,1 C 11,8 C 86 % 1012,0 hPa 0,0 l/m 0 min 0 min 0,0 UV-I 0 W/m 15,4 km/h (3 Bft)
01.06.2013 00:18 13,1 C 11,8 C 86 % 1012,0 hPa 0,0 l/m 0 min 0 min 0,0 UV-I 0 W/m 18,0 km/h (3 Bft)
01.06.2013 00:20 13,1 C 11,8 C 86 % 1012,0 hPa 0,0 l/m 0 min 0 min 0,0 UV-I 0 W/m 15,4 km/h (3 Bft)
01.06.2013 00:22 13,0 C 11,8 C 86 % 1012,0 hPa 0,0 l/m 0 min 0 min 0,0 UV-I 0 W/m 10,3 km/h (2 Bft)
01.06.2013 00:24 13,0 C 11,8 C 87 % 1011,9 hPa 0,0 l/m 0 min 0 min 0,0 UV-I 0 W/m 15,4 km/h (3 Bft)
01.06.2013 00:26 12,9 C 11,8 C 87 % 1011,9 hPa 0,0 l/m 0 min 0 min 0,0 UV-I 0 W/m 15,4 km/h (3 Bft)
01.06.2013 00:28 12,9 C 11,8 C 87 % 1012,0 hPa 0,0 l/m 0 min 0 min 0,0 UV-I 0 W/m 12,9 km/h (3 Bft)
01.06.2013 00:30 12,9 C 11,8 C 87 % 1012,0 hPa 0,0 l/m 0 min 0 min 0,0 UV-I 0 W/m 10,3 km/h (2 Bft)
01.06.2013 00:32 12,9 C 11,8 C 87 % 1012,1 hPa 0,0 l/m 0 min 0 min 0,0 UV-I 0 W/m 15,4 km/h (3 Bft)
01.06.2013 00:34 12,8 C 11,8 C 87 % 1012,1 hPa 0,0 l/m 0 min 0 min 0,0 UV-I 0 W/m 2,6 km/h (1 Bft)
01.06.2013 00:36 12,8 C 11,8 C 87 % 1012,1 hPa 0,0 l/m 0 min 0 min 0,0 UV-I 0 W/m 18,0 km/h (3 Bft)
01.06.2013 00:38 12,8 C 11,8 C 87 % 1012,1 hPa 0,0 l/m 0 min 0 min 0,0 UV-I 0 W/m 7,7 km/h (2 Bft)
01.06.2013 00:40 12,8 C 11,8 C 87 % 1012,0 hPa 0,0 l/m 0 min 0 min 0,0 UV-I 0 W/m 20,6 km/h (4 Bft)
01.06.2013 00:42 12,8 C 11,8 C 87 % 1012,0 hPa 0,0 l/m 0 min 0 min 0,0 UV-I 0 W/m 18,0 km/h (3 Bft)
01.06.2013 00:44 12,8 C 11,8 C 87 % 1012,1 hPa 0,0 l/m 0 min 0 min 0,0 UV-I 0 W/m 15,4 km/h (3 Bft)
01.06.2013 00:46 12,7 C 11,8 C 88 % 1012,1 hPa 0,0 l/m 0 min 0 min 0,0 UV-I 0 W/m 15,4 km/h (3 Bft)
01.06.2013 00:48 12,7 C 11,8 C 88 % 1012,1 hPa 0,0 l/m 0 min 0 min 0,0 UV-I 0 W/m 15,4 km/h (3 Bft)
01.06.2013 00:50 12,7 C 11,8 C 88 % 1012,1 hPa 0,0 l/m 0 min 0 min 0,0 UV-I 0 W/m 18,0 km/h (3 Bft)
01.06.2013 00:52 12,7 C 11,8 C 88 % 1012,2 hPa 0,0 l/m 0 min 0 min 0,0 UV-I 0 W/m 18,0 km/h (3 Bft)
01.06.2013 00:54 12,7 C 11,8 C 88 % 1012,2 hPa 0,0 l/m 0 min 0 min 0,0 UV-I 0 W/m 12,9 km/h (3 Bft)
01.06.2013 00:56 12,7 C 11,8 C 88 % 1012,2 hPa 0,0 l/m 0 min 0 min 0,0 UV-I 0 W/m 18,0 km/h (3 Bft)
01.06.2013 00:58 12,7 C 11,8 C 88 % 1012,2 hPa 0,0 l/m 0 min 0 min 0,0 UV-I 0 W/m 12,9 km/h (3 Bft)
01.06.2013 01:00 12,7 C 11,8 C 88 % 1012,2 hPa 0,0 l/m 0 min 0 min 0,0 UV-I 0 W/m 15,4 km/h (3 Bft)
01.06.2013 01:02 12,7 C 11,8 C 88 % 1012,2 hPa 0,0 l/m 0 min 0 min 0,0 UV-I 0 W/m 5,1 km/h (1 Bft)
01.06.2013 01:04 12,7 C 11,8 C 88 % 1012,2 hPa 0,0 l/m 0 min 0 min 0,0 UV-I 0 W/m 12,9 km/h (3 Bft)
01.06.2013 01:06 12,7 C 11,8 C 88 % 1012,2 hPa 0,0 l/m 0 min 0 min 0,0 UV-I 0 W/m 7,7 km/h (2 Bft)
01.06.2013 01:08 12,7 C 11,8 C 88 % 1012,2 hPa 0,0 l/m 0 min 0 min 0,0 UV-I 0 W/m 2,6 km/h (1 Bft)
01.06.2013 01:10 12,7 C 11,8 C 88 % 1012,3 hPa 0,0 l/m 0 min 0 min 0,0 UV-I 0 W/m 10,3 km/h (2 Bft)
01.06.2013 01:12 12,7 C 11,8 C 88 % 1012,3 hPa 0,0 l/m 0 min 0 min 0,0 UV-I 0 W/m 7,7 km/h (2 Bft)
01.06.2013 01:14 12,7 C 11,8 C 88 % 1012,2 hPa 0,0 l/m 0 min 0 min 0,0 UV-I 0 W/m 18,0 km/h (3 Bft)
01.06.2013 01:16 12,7 C 11,8 C 88 % 1012,3 hPa 0,0 l/m 0 min 0 min 0,0 UV-I 0 W/m 7,7 km/h (2 Bft)
01.06.2013 01:18 12,7 C 11,8 C 88 % 1012,3 hPa 0,0 l/m 0 min 0 min 0,0 UV-I 0 W/m 0,0 km/h (0 Bft)
01.06.2013 01:20 12,6 C 11,8 C 88 % 1012,3 hPa 0,0 l/m 0 min 0 min 0,0 UV-I 0 W/m 2,6 km/h (1 Bft)
01.06.2013 01:22 12,6 C 11,8 C 88 % 1012,3 hPa 0,0 l/m 0 min 0 min 0,0 UV-I 0 W/m 2,6 km/h (1 Bft)
01.06.2013 01:24 12,6 C 11,8 C 88 % 1012,3 hPa 0,0 l/m 0 min 0 min 0,0 UV-I 0 W/m 12,9 km/h (3 Bft)
01.06.2013 01:26 12,6 C 11,8 C 88 % 1012,4 hPa 0,0 l/m 0 min 0 min 0,0 UV-I 0 W/m 12,9 km/h (3 Bft)
01.06.2013 01:28 12,6 C 11,8 C 88 % 1012,3 hPa 0,0 l/m 0 min 0 min 0,0 UV-I 0 W/m 0,0 km/h (0 Bft)
01.06.2013 01:30 12,6 C 11,8 C 88 % 1012,3 hPa 0,0 l/m 0 min 0 min 0,0 UV-I 0 W/m 0,0 km/h (0 Bft)
01.06.2013 01:32 12,6 C 11,8 C 89 % 1012,4 hPa 0,0 l/m 0 min 0 min 0,0 UV-I 0 W/m 5,1 km/h (1 Bft)
01.06.2013 01:34 12,6 C 11,8 C 89 % 1012,4 hPa 0,0 l/m 0 min 0 min 0,0 UV-I 0 W/m 0,0 km/h (0 Bft)
01.06.2013 01:36 12,6 C 11,8 C 89 % 1012,4 hPa 0,0 l/m 0 min 0 min 0,0 UV-I 0 W/m 5,1 km/h (1 Bft)
01.06.2013 01:38 12,6 C 11,8 C 89 % 1012,4 hPa 0,0 l/m 0 min 0 min 0,0 UV-I 0 W/m 15,4 km/h (3 Bft)
01.06.2013 01:40 12,6 C 11,8 C 89 % 1012,4 hPa 0,0 l/m 0 min 0 min 0,0 UV-I 0 W/m 12,9 km/h (3 Bft)
01.06.2013 01:42 12,6 C 11,8 C 89 % 1012,3 hPa 0,0 l/m 0 min 0 min 0,0 UV-I 0 W/m 0,0 km/h (0 Bft)
01.06.2013 01:44 12,6 C 11,8 C 89 % 1012,4 hPa 0,0 l/m 0 min 0 min 0,0 UV-I 0 W/m 7,7 km/h (2 Bft)
01.06.2013 01:46 12,5 C 11,8 C 89 % 1012,4 hPa 0,0 l/m 0 min 0 min 0,0 UV-I 0 W/m 5,1 km/h (1 Bft)
01.06.2013 01:48 12,5 C 11,8 C 89 % 1012,4 hPa 0,0 l/m 0 min 0 min 0,0 UV-I 0 W/m 15,4 km/h (3 Bft)
01.06.2013 01:50 12,5 C 11,8 C 89 % 1012,4 hPa 0,0 l/m 0 min 0 min 0,0 UV-I 0 W/m 7,7 km/h (2 Bft)
01.06.2013 01:52 12,5 C 11,8 C 89 % 1012,4 hPa 0,0 l/m 0 min 0 min 0,0 UV-I 0 W/m 10,3 km/h (2 Bft)
01.06.2013 01:54 12,4 C 11,8 C 89 % 1012,4 hPa 0,0 l/m 0 min 0 min 0,0 UV-I 0 W/m 10,3 km/h (2 Bft)
01.06.2013 01:56 12,4 C 11,8 C 89 % 1012,4 hPa 0,0 l/m 0 min 0 min 0,0 UV-I 0 W/m 12,9 km/h (3 Bft)
01.06.2013 01:58 12,4 C 11,8 C 89 % 1012,4 hPa 0,0 l/m 0 min 0 min 0,0 UV-I 0 W/m 7,7 km/h (2 Bft)
01.06.2013 02:00 12,4 C 11,8 C 89 % 1012,4 hPa 0,0 l/m 0 min 0 min 0,0 UV-I 0 W/m 2,6 km/h (1 Bft)
01.06.2013 02:02 12,4 C 11,2 C 89 % 1012,4 hPa 0,0 l/m 0 min 0 min 0,0 UV-I 0 W/m 10,3 km/h (2 Bft)
01.06.2013 02:04 12,4 C 11,2 C 89 % 1012,4 hPa 0,0 l/m 0 min 0 min 0,0 UV-I 0 W/m 20,6 km/h (4 Bft)
01.06.2013 02:06 12,4 C 11,2 C 89 % 1012,5 hPa 0,0 l/m 0 min 0 min 0,0 UV-I 0 W/m 10,3 km/h (2 Bft)
01.06.2013 02:08 12,4 C 11,2 C 89 % 1012,4 hPa 0,0 l/m 0 min 0 min 0,0 UV-I 0 W/m 0,0 km/h (0 Bft)
01.06.2013 02:10 12,4 C 11,8 C 89 % 1012,4 hPa 0,0 l/m 0 min 0 min 0,0 UV-I 0 W/m 5,1 km/h (1 Bft)
01.06.2013 02:12 12,4 C 11,8 C 89 % 1012,3 hPa 0,0 l/m 0 min 0 min 0,0 UV-I 0 W/m 2,6 km/h (1 Bft)
01.06.2013 02:14 12,4 C 11,8 C 89 % 1012,4 hPa 0,0 l/m 0 min 0 min 0,0 UV-I 0 W/m 5,1 km/h (1 Bft)
01.06.2013 02:16 12,4 C 11,2 C 89 % 1012,4 hPa 0,0 l/m 0 min 0 min 0,0 UV-I 0 W/m 10,3 km/h (2 Bft)
01.06.2013 02:18 12,3 C 11,2 C 89 % 1012,4 hPa 0,0 l/m 0 min 0 min 0,0 UV-I 0 W/m 12,9 km/h (3 Bft)
01.06.2013 02:20 12,3 C 11,2 C 89 % 1012,4 hPa 0,0 l/m 0 min 0 min 0,0 UV-I 0 W/m 0,0 km/h (0 Bft)
01.06.2013 02:22 12,3 C 11,2 C 89 % 1012,5 hPa 0,0 l/m 0 min 0 min 0,0 UV-I 0 W/m 7,7 km/h (2 Bft)
01.06.2013 02:24 12,3 C 11,2 C 89 % 1012,5 hPa 0,0 l/m 0 min 0 min 0,0 UV-I 0 W/m 10,3 km/h (2 Bft)
01.06.2013 02:26 12,3 C 11,2 C 89 % 1012,6 hPa 0,0 l/m 0 min 0 min 0,0 UV-I 0 W/m 7,7 km/h (2 Bft)
01.06.2013 02:28 12,3 C 11,2 C 89 % 1012,5 hPa 0,0 l/m 0 min 0 min 0,0 UV-I 0 W/m 15,4 km/h (3 Bft)
01.06.2013 02:30 12,3 C 11,2 C 89 % 1012,5 hPa 0,0 l/m 0 min 0 min 0,0 UV-I 0 W/m 7,7 km/h (2 Bft)
01.06.2013 02:32 12,3 C 11,2 C 89 % 1012,5 hPa 0,0 l/m 0 min 0 min 0,0 UV-I 0 W/m 0,0 km/h (0 Bft)
01.06.2013 02:34 12,3 C 11,2 C 90 % 1012,5 hPa 0,0 l/m 0 min 0 min 0,0 UV-I 0 W/m 5,1 km/h (1 Bft)
01.06.2013 02:36 12,3 C 11,2 C 90 % 1012,5 hPa 0,0 l/m 0 min 0 min 0,0 UV-I 0 W/m 7,7 km/h (2 Bft)
01.06.2013 02:38 12,3 C 11,2 C 90 % 1012,6 hPa 0,0 l/m 0 min 0 min 0,0 UV-I 0 W/m 12,9 km/h (3 Bft)
01.06.2013 02:40 12,3 C 11,2 C 90 % 1012,6 hPa 0,0 l/m 0 min 0 min 0,0 UV-I 0 W/m 0,0 km/h (0 Bft)
01.06.2013 02:42 12,3 C 11,2 C 90 % 1012,7 hPa 0,0 l/m 0 min 0 min 0,0 UV-I 0 W/m 2,6 km/h (1 Bft)
01.06.2013 02:44 12,3 C 11,2 C 90 % 1012,7 hPa 0,0 l/m 0 min 0 min 0,0 UV-I 0 W/m 2,6 km/h (1 Bft)
01.06.2013 02:46 12,3 C 11,2 C 90 % 1012,6 hPa 0,0 l/m 0 min 0 min 0,0 UV-I 0 W/m 5,1 km/h (1 Bft)
01.06.2013 02:48 12,3 C 11,2 C 90 % 1012,6 hPa 0,0 l/m 0 min 0 min 0,0 UV-I 0 W/m 0,0 km/h (0 Bft)
01.06.2013 02:50 12,3 C 11,2 C 90 % 1012,6 hPa 0,0 l/m 0 min 0 min 0,0 UV-I 0 W/m 0,0 km/h (0 Bft)
01.06.2013 02:52 12,3 C 11,2 C 90 % 1012,5 hPa 0,0 l/m 0 min 0 min 0,0 UV-I 0 W/m 2,6 km/h (1 Bft)
01.06.2013 02:54 12,3 C 11,2 C 90 % 1012,6 hPa 0,0 l/m 0 min 0 min 0,0 UV-I 0 W/m 10,3 km/h (2 Bft)
01.06.2013 02:56 12,3 C 11,2 C 90 % 1012,6 hPa 0,0 l/m 0 min 0 min 0,0 UV-I 0 W/m 10,3 km/h (2 Bft)
01.06.2013 02:58 12,3 C 11,2 C 90 % 1012,7 hPa 0,0 l/m 0 min 0 min 0,0 UV-I 0 W/m 7,7 km/h (2 Bft)
01.06.2013 03:00 12,3 C 11,2 C 90 % 1012,6 hPa 0,0 l/m 0 min 0 min 0,0 UV-I 0 W/m 12,9 km/h (3 Bft)
01.06.2013 03:02 12,3 C 11,2 C 90 % 1012,6 hPa 0,0 l/m 0 min 0 min 0,0 UV-I 0 W/m 18,0 km/h (3 Bft)
01.06.2013 03:06 12,2 C 11,2 C 90 % 1012,6 hPa 0,0 l/m 0 min 0 min 0,0 UV-I 0 W/m 20,6 km/h (4 Bft)
01.06.2013 03:08 12,2 C 11,2 C 90 % 1012,7 hPa 0,0 l/m 0 min 0 min 0,0 UV-I 0 W/m 12,9 km/h (3 Bft)
01.06.2013 03:10 12,2 C 11,2 C 90 % 1012,6 hPa 0,0 l/m 0 min 0 min 0,0 UV-I 0 W/m 5,1 km/h (1 Bft)
01.06.2013 03:12 12,2 C 11,2 C 90 % 1012,7 hPa 0,0 l/m 0 min 0 min 0,0 UV-I 0 W/m 7,7 km/h (2 Bft)
01.06.2013 03:14 12,2 C 11,2 C 90 % 1012,8 hPa 0,0 l/m 0 min 0 min 0,0 UV-I 0 W/m 12,9 km/h (3 Bft)
01.06.2013 03:16 12,2 C 11,2 C 90 % 1012,7 hPa 0,0 l/m 0 min 0 min 0,0 UV-I 0 W/m 7,7 km/h (2 Bft)
01.06.2013 03:18 12,2 C 11,2 C 90 % 1012,8 hPa 0,0 l/m 0 min 0 min 0,0 UV-I 0 W/m 7,7 km/h (2 Bft)
01.06.2013 03:20 12,2 C 11,2 C 90 % 1012,7 hPa 0,0 l/m 0 min 0 min 0,0 UV-I 0 W/m 15,4 km/h (3 Bft)
01.06.2013 03:22 12,2 C 11,2 C 90 % 1012,7 hPa 0,0 l/m 0 min 0 min 0,0 UV-I 0 W/m 0,0 km/h (0 Bft)
01.06.2013 03:24 12,2 C 11,2 C 90 % 1012,7 hPa 0,0 l/m 0 min 0 min 0,0 UV-I 0 W/m 0,0 km/h (0 Bft)
01.06.2013 03:26 12,2 C 11,2 C 90 % 1012,7 hPa 0,0 l/m 0 min 0 min 0,0 UV-I 0 W/m 0,0 km/h (0 Bft)
01.06.2013 03:28 12,2 C 11,2 C 90 % 1012,8 hPa 0,0 l/m 0 min 0 min 0,0 UV-I 0 W/m 5,1 km/h (1 Bft)
01.06.2013 03:30 12,2 C 11,2 C 90 % 1012,7 hPa 0,0 l/m 0 min 0 min 0,0 UV-I 0 W/m 15,4 km/h (3 Bft)
01.06.2013 03:32 12,2 C 11,2 C 90 % 1012,8 hPa 0,0 l/m 0 min 0 min 0,0 UV-I 0 W/m 5,1 km/h (1 Bft)
01.06.2013 03:34 12,2 C 11,2 C 90 % 1012,8 hPa 0,0 l/m 0 min 0 min 0,0 UV-I 0 W/m 12,9 km/h (3 Bft)
01.06.2013 03:36 12,2 C 11,2 C 90 % 1012,8 hPa 0,0 l/m 0 min 0 min 0,0 UV-I 0 W/m 7,7 km/h (2 Bft)
01.06.2013 03:38 12,2 C 11,2 C 90 % 1012,8 hPa 0,0 l/m 0 min 0 min 0,0 UV-I 0 W/m 7,7 km/h (2 Bft)
01.06.2013 03:40 12,2 C 11,2 C 90 % 1012,7 hPa 0,0 l/m 0 min 0 min 0,0 UV-I 0 W/m 5,1 km/h (1 Bft)
01.06.2013 03:42 12,2 C 11,2 C 90 % 1012,8 hPa 0,0 l/m 0 min 0 min 0,0 UV-I 0 W/m 12,9 km/h (3 Bft)
01.06.2013 03:44 12,2 C 11,2 C 90 % 1012,7 hPa 0,0 l/m 0 min 0 min 0,0 UV-I 0 W/m 0,0 km/h (0 Bft)
01.06.2013 03:46 12,2 C 11,2 C 90 % 1012,8 hPa 0,0 l/m 0 min 0 min 0,0 UV-I 0 W/m 2,6 km/h (1 Bft)
01.06.2013 03:48 12,1 C 11,2 C 90 % 1012,8 hPa 0,0 l/m 0 min 0 min 0,0 UV-I 0 W/m 5,1 km/h (1 Bft)
01.06.2013 03:50 12,1 C 11,2 C 90 % 1012,8 hPa 0,0 l/m 0 min 0 min 0,0 UV-I 0 W/m 2,6 km/h (1 Bft)
01.06.2013 03:52 12,1 C 11,2 C 90 % 1012,7 hPa 0,0 l/m 0 min 0 min 0,0 UV-I 0 W/m 0,0 km/h (0 Bft)
01.06.2013 03:54 12,1 C 11,2 C 90 % 1012,7 hPa 0,0 l/m 0 min 0 min 0,0 UV-I 0 W/m 0,0 km/h (0 Bft)
01.06.2013 03:56 12,1 C 11,2 C 90 % 1012,7 hPa 0,0 l/m 0 min 0 min 0,0 UV-I 0 W/m 2,6 km/h (1 Bft)
01.06.2013 03:58 12,1 C 11,2 C 90 % 1012,6 hPa 0,0 l/m 0 min 0 min 0,0 UV-I 0 W/m 7,7 km/h (2 Bft)
01.06.2013 04:00 12,1 C 11,2 C 90 % 1012,7 hPa 0,0 l/m 0 min 0 min 0,0 UV-I 0 W/m 2,6 km/h (1 Bft)
01.06.2013 04:02 12,1 C 11,2 C 90 % 1012,6 hPa 0,0 l/m 0 min 0 min 0,0 UV-I 0 W/m 18,0 km/h (3 Bft)
01.06.2013 04:04 12,1 C 11,2 C 90 % 1012,7 hPa 0,0 l/m 0 min 0 min 0,0 UV-I 0 W/m 12,9 km/h (3 Bft)
01.06.2013 04:06 12,1 C 11,2 C 90 % 1012,7 hPa 0,0 l/m 0 min 0 min 0,0 UV-I 0 W/m 7,7 km/h (2 Bft)
01.06.2013 04:08 12,1 C 11,2 C 90 % 1012,7 hPa 0,0 l/m 0 min 0 min 0,0 UV-I 0 W/m 10,3 km/h (2 Bft)
01.06.2013 04:10 12,1 C 11,2 C 90 % 1012,6 hPa 0,0 l/m 0 min 0 min 0,0 UV-I 0 W/m 2,6 km/h (1 Bft)
01.06.2013 04:12 12,0 C 11,2 C 90 % 1012,6 hPa 0,0 l/m 0 min 0 min 0,0 UV-I 0 W/m 7,7 km/h (2 Bft)
01.06.2013 04:14 12,0 C 11,2 C 90 % 1012,6 hPa 0,0 l/m 0 min 0 min 0,0 UV-I 0 W/m 5,1 km/h (1 Bft)
01.06.2013 04:16 12,0 C 11,2 C 90 % 1012,6 hPa 0,0 l/m 0 min 0 min 0,0 UV-I 0 W/m 15,4 km/h (3 Bft)
01.06.2013 04:18 12,0 C 11,2 C 90 % 1012,6 hPa 0,0 l/m 0 min 0 min 0,0 UV-I 0 W/m 10,3 km/h (2 Bft)
01.06.2013 04:20 11,9 C 11,2 C 90 % 1012,6 hPa 0,0 l/m 0 min 0 min 0,0 UV-I 0 W/m 10,3 km/h (2 Bft)
01.06.2013 04:22 11,9 C 11,2 C 90 % 1012,6 hPa 0,0 l/m 0 min 0 min 0,0 UV-I 0 W/m 25,7 km/h (4 Bft)
01.06.2013 04:24 11,9 C 11,2 C 90 % 1012,5 hPa 0,0 l/m 0 min 0 min 0,0 UV-I 0 W/m 12,9 km/h (3 Bft)
01.06.2013 04:26 11,9 C 11,2 C 90 % 1012,6 hPa 0,0 l/m 0 min 0 min 0,0 UV-I 0 W/m 10,3 km/h (2 Bft)
01.06.2013 04:28 11,9 C 11,2 C 90 % 1012,7 hPa 0,0 l/m 0 min 0 min 0,0 UV-I 0 W/m 5,1 km/h (1 Bft)
01.06.2013 04:30 11,8 C 11,2 C 90 % 1012,8 hPa 0,0 l/m 0 min 0 min 0,0 UV-I 0 W/m 10,3 km/h (2 Bft)
01.06.2013 04:32 11,8 C 10,7 C 90 % 1012,7 hPa 0,0 l/m 0 min 0 min 0,0 UV-I 0 W/m 7,7 km/h (2 Bft)
01.06.2013 04:34 11,8 C 10,7 C 90 % 1012,8 hPa 0,0 l/m 0 min 0 min 0,0 UV-I 0 W/m 12,9 km/h (3 Bft)
01.06.2013 04:36 11,8 C 10,7 C 90 % 1012,8 hPa 0,0 l/m 0 min 0 min 0,0 UV-I 0 W/m 15,4 km/h (3 Bft)
01.06.2013 04:38 11,8 C 10,7 C 90 % 1012,8 hPa 0,0 l/m 0 min 0 min 0,0 UV-I 0 W/m 15,4 km/h (3 Bft)
01.06.2013 04:40 11,8 C 10,7 C 90 % 1012,8 hPa 0,0 l/m 0 min 0 min 0,0 UV-I 0 W/m 5,1 km/h (1 Bft)
01.06.2013 04:42 11,7 C 10,7 C 90 % 1012,8 hPa 0,0 l/m 0 min 0 min 0,0 UV-I 0 W/m 18,0 km/h (3 Bft)
01.06.2013 04:44 11,7 C 10,7 C 90 % 1012,8 hPa 0,0 l/m 0 min 0 min 0,0 UV-I 0 W/m 18,0 km/h (3 Bft)
01.06.2013 04:46 11,7 C 10,7 C 90 % 1012,9 hPa 0,0 l/m 0 min 0 min 0,0 UV-I 0 W/m 15,4 km/h (3 Bft)
01.06.2013 04:48 11,7 C 10,7 C 90 % 1012,8 hPa 0,0 l/m 0 min 0 min 0,0 UV-I 0 W/m 15,4 km/h (3 Bft)
01.06.2013 04:50 11,7 C 10,7 C 90 % 1012,9 hPa 0,0 l/m 0 min 0 min 0,0 UV-I 0 W/m 23,2 km/h (4 Bft)
01.06.2013 04:52 11,7 C 10,7 C 90 % 1012,9 hPa 0,0 l/m 0 min 0 min 0,0 UV-I 0 W/m 23,2 km/h (4 Bft)
01.06.2013 04:54 11,7 C 10,7 C 90 % 1012,9 hPa 0,0 l/m 0 min 0 min 0,0 UV-I 0 W/m 15,4 km/h (3 Bft)
01.06.2013 04:56 11,6 C 10,7 C 90 % 1013,0 hPa 0,0 l/m 0 min 0 min 0,0 UV-I 0 W/m 15,4 km/h (3 Bft)
01.06.2013 04:58 11,6 C 10,7 C 90 % 1013,0 hPa 0,0 l/m 0 min 0 min 0,0 UV-I 0 W/m 15,4 km/h (3 Bft)
01.06.2013 05:00 11,6 C 10,7 C 90 % 1013,1 hPa 0,0 l/m 0 min 0 min 0,0 UV-I 0 W/m 12,9 km/h (3 Bft)
01.06.2013 05:02 11,6 C 10,7 C 90 % 1013,0 hPa 0,0 l/m 0 min 0 min 0,0 UV-I 0 W/m 12,9 km/h (3 Bft)
01.06.2013 05:04 11,6 C 10,7 C 90 % 1013,0 hPa 0,0 l/m 0 min 0 min 0,0 UV-I 0 W/m 12,9 km/h (3 Bft)
01.06.2013 05:06 11,6 C 10,7 C 90 % 1013,1 hPa 0,0 l/m 0 min 0 min 0,0 UV-I 0 W/m 23,2 km/h (4 Bft)
01.06.2013 05:08 11,6 C 10,7 C 90 % 1013,0 hPa 0,0 l/m 0 min 0 min 0,0 UV-I 0 W/m 30,9 km/h (5 Bft)
01.06.2013 05:10 11,5 C 10,7 C 90 % 1013,0 hPa 0,0 l/m 0 min 0 min 0,0 UV-I 0 W/m 7,7 km/h (2 Bft)
01.06.2013 05:12 11,5 C 10,7 C 90 % 1013,1 hPa 0,0 l/m 0 min 0 min 0,0 UV-I 0 W/m 18,0 km/h (3 Bft)
01.06.2013 05:14 11,5 C 10,7 C 90 % 1013,1 hPa 0,0 l/m 0 min 0 min 0,0 UV-I 0 W/m 12,9 km/h (3 Bft)
01.06.2013 05:16 11,4 C 10,7 C 90 % 1013,1 hPa 0,0 l/m 0 min 0 min 0,0 UV-I 0 W/m 10,3 km/h (2 Bft)
01.06.2013 05:18 11,4 C 10,7 C 90 % 1013,2 hPa 0,0 l/m 0 min 0 min 0,0 UV-I 0 W/m 12,9 km/h (3 Bft)
01.06.2013 05:20 11,4 C 10,7 C 90 % 1013,2 hPa 0,0 l/m 0 min 0 min 0,0 UV-I 0 W/m 10,3 km/h (2 Bft)
01.06.2013 05:22 11,4 C 10,7 C 90 % 1013,1 hPa 0,0 l/m 0 min 0 min 0,0 UV-I 0 W/m 15,4 km/h (3 Bft)
01.06.2013 05:24 11,4 C 10,7 C 90 % 1013,2 hPa 0,0 l/m 0 min 0 min 0,0 UV-I 0 W/m 12,9 km/h (3 Bft)
01.06.2013 05:26 11,4 C 10,7 C 90 % 1013,2 hPa 0,0 l/m 0 min 0 min 0,0 UV-I 0 W/m 15,4 km/h (3 Bft)
01.06.2013 05:28 11,4 C 10,7 C 90 % 1013,2 hPa 0,0 l/m 0 min 0 min 0,0 UV-I 0 W/m 10,3 km/h (2 Bft)
01.06.2013 05:30 11,4 C 10,7 C 90 % 1013,3 hPa 0,0 l/m 0 min 0 min 0,0 UV-I 0 W/m 15,4 km/h (3 Bft)
01.06.2013 05:32 11,4 C 10,7 C 90 % 1013,3 hPa 0,0 l/m 0 min 0 min 0,0 UV-I 0 W/m 23,2 km/h (4 Bft)
01.06.2013 05:34 11,3 C 10,7 C 90 % 1013,3 hPa 0,0 l/m 0 min 0 min 0,0 UV-I 0 W/m 15,4 km/h (3 Bft)
01.06.2013 05:36 11,3 C 10,7 C 90 % 1013,2 hPa 0,0 l/m 0 min 0 min 0,0 UV-I 0 W/m 12,9 km/h (3 Bft)
01.06.2013 05:38 11,3 C 10,7 C 90 % 1013,2 hPa 0,0 l/m 0 min 0 min 0,0 UV-I 5 W/m 15,4 km/h (3 Bft)
01.06.2013 05:40 11,3 C 10,7 C 90 % 1013,4 hPa 0,0 l/m 0 min 0 min 0,0 UV-I 5 W/m 12,9 km/h (3 Bft)
01.06.2013 05:42 11,3 C 10,7 C 90 % 1013,3 hPa 0,0 l/m 0 min 0 min 0,0 UV-I 5 W/m 12,9 km/h (3 Bft)
01.06.2013 05:44 11,3 C 10,7 C 90 % 1013,3 hPa 0,0 l/m 0 min 0 min 0,0 UV-I 5 W/m 7,7 km/h (2 Bft)
01.06.2013 05:46 11,3 C 10,7 C 90 % 1013,3 hPa 0,0 l/m 0 min 0 min 0,0 UV-I 5 W/m 2,6 km/h (1 Bft)
01.06.2013 05:48 11,3 C 10,7 C 90 % 1013,3 hPa 0,0 l/m 0 min 0 min 0,0 UV-I 0 W/m 0,0 km/h (0 Bft)
01.06.2013 05:50 11,3 C 10,7 C 90 % 1013,3 hPa 0,0 l/m 0 min 0 min 0,0 UV-I 0 W/m 2,6 km/h (1 Bft)
01.06.2013 05:52 11,3 C 10,7 C 90 % 1013,3 hPa 0,0 l/m 0 min 0 min 0,0 UV-I 0 W/m 12,9 km/h (3 Bft)
01.06.2013 05:54 11,3 C 10,7 C 90 % 1013,4 hPa 0,0 l/m 0 min 0 min 0,0 UV-I 5 W/m 12,9 km/h (3 Bft)
01.06.2013 05:56 11,3 C 10,7 C 90 % 1013,4 hPa 0,0 l/m 0 min 0 min 0,0 UV-I 5 W/m 7,7 km/h (2 Bft)
01.06.2013 05:58 11,3 C 10,7 C 91 % 1013,4 hPa 0,0 l/m 0 min 0 min 0,0 UV-I 5 W/m 10,3 km/h (2 Bft)
01.06.2013 06:00 11,3 C 10,7 C 91 % 1013,4 hPa 0,0 l/m 0 min 0 min 0,0 UV-I 5 W/m 12,9 km/h (3 Bft)
01.06.2013 06:02 11,3 C 10,7 C 91 % 1013,3 hPa 0,0 l/m 0 min 0 min 0,0 UV-I 7 W/m 12,9 km/h (3 Bft)
01.06.2013 06:04 11,3 C 10,7 C 91 % 1013,3 hPa 0,0 l/m 0 min 0 min 0,0 UV-I 7 W/m 15,4 km/h (3 Bft)
01.06.2013 06:06 11,3 C 10,7 C 91 % 1013,5 hPa 0,0 l/m 0 min 0 min 0,0 UV-I 7 W/m 12,9 km/h (3 Bft)
01.06.2013 06:08 11,3 C 10,7 C 91 % 1013,5 hPa 0,0 l/m 0 min 0 min 0,0 UV-I 7 W/m 15,4 km/h (3 Bft)
01.06.2013 06:10 11,3 C 10,7 C 91 % 1013,6 hPa 0,0 l/m 0 min 0 min 0,0 UV-I 7 W/m 15,4 km/h (3 Bft)
01.06.2013 06:12 11,3 C 10,7 C 91 % 1013,5 hPa 0,0 l/m 0 min 0 min 0,0 UV-I 7 W/m 10,3 km/h (2 Bft)
01.06.2013 06:14 11,3 C 10,7 C 91 % 1013,6 hPa 0,0 l/m 0 min 0 min 0,0 UV-I 9 W/m 15,4 km/h (3 Bft)
01.06.2013 06:16 11,3 C 10,7 C 91 % 1013,7 hPa 0,0 l/m 0 min 0 min 0,0 UV-I 9 W/m 12,9 km/h (3 Bft)
01.06.2013 06:18 11,3 C 10,7 C 91 % 1013,6 hPa 0,0 l/m 0 min 0 min 0,0 UV-I 9 W/m 0,0 km/h (0 Bft)
01.06.2013 06:20 11,2 C 10,7 C 91 % 1013,6 hPa 0,0 l/m 0 min 0 min 0,0 UV-I 9 W/m 18,0 km/h (3 Bft)
01.06.2013 06:22 11,2 C 10,7 C 91 % 1013,6 hPa 0,0 l/m 0 min 0 min 0,0 UV-I 11 W/m 12,9 km/h (3 Bft)
01.06.2013 06:24 11,2 C 10,7 C 91 % 1013,6 hPa 0,0 l/m 0 min 0 min 0,0 UV-I 11 W/m 5,1 km/h (1 Bft)
01.06.2013 06:26 11,2 C 10,7 C 91 % 1013,7 hPa 0,0 l/m 0 min 0 min 0,0 UV-I 12 W/m 7,7 km/h (2 Bft)
01.06.2013 06:28 11,2 C 10,7 C 91 % 1013,6 hPa 0,0 l/m 0 min 0 min 0,0 UV-I 16 W/m 2,6 km/h (1 Bft)
01.06.2013 06:30 11,2 C 10,7 C 91 % 1013,6 hPa 0,0 l/m 0 min 0 min 0,0 UV-I 18 W/m 10,3 km/h (2 Bft)
01.06.2013 06:32 11,2 C 10,7 C 91 % 1013,6 hPa 0,0 l/m 0 min 0 min 0,0 UV-I 19 W/m 2,6 km/h (1 Bft)
01.06.2013 06:34 11,2 C 10,7 C 91 % 1013,7 hPa 0,0 l/m 0 min 0 min 0,0 UV-I 19 W/m 12,9 km/h (3 Bft)
01.06.2013 06:36 11,2 C 10,7 C 91 % 1013,7 hPa 0,0 l/m 0 min 0 min 0,0 UV-I 23 W/m 10,3 km/h (2 Bft)
01.06.2013 06:38 11,2 C 10,7 C 91 % 1013,7 hPa 0,0 l/m 0 min 0 min 0,0 UV-I 26 W/m 2,6 km/h (1 Bft)
01.06.2013 06:40 11,2 C 10,7 C 91 % 1013,7 hPa 0,0 l/m 0 min 0 min 0,0 UV-I 26 W/m 0,0 km/h (0 Bft)
01.06.2013 06:42 11,2 C 10,7 C 91 % 1013,7 hPa 0,0 l/m 0 min 0 min 0,0 UV-I 26 W/m 10,3 km/h (2 Bft)
01.06.2013 06:44 11,2 C 10,7 C 91 % 1013,7 hPa 0,0 l/m 0 min 0 min 0,0 UV-I 28 W/m 10,3 km/h (2 Bft)
01.06.2013 06:46 11,2 C 10,7 C 91 % 1013,6 hPa 0,0 l/m 0 min 0 min 0,0 UV-I 28 W/m 0,0 km/h (0 Bft)
01.06.2013 06:48 11,2 C 10,7 C 91 % 1013,7 hPa 0,0 l/m 0 min 0 min 0,0 UV-I 28 W/m 2,6 km/h (1 Bft)
01.06.2013 06:50 11,2 C 10,7 C 91 % 1013,8 hPa 0,0 l/m 0 min 0 min 0,0 UV-I 30 W/m 7,7 km/h (2 Bft)
01.06.2013 06:52 11,2 C 10,7 C 91 % 1013,8 hPa 0,0 l/m 0 min 0 min 0,0 UV-I 37 W/m 2,6 km/h (1 Bft)
01.06.2013 06:54 11,2 C 10,7 C 91 % 1013,7 hPa 0,0 l/m 0 min 0 min 0,0 UV-I 40 W/m 12,9 km/h (3 Bft)
01.06.2013 06:56 11,2 C 10,7 C 91 % 1013,8 hPa 0,0 l/m 0 min 0 min 0,0 UV-I 44 W/m 2,6 km/h (1 Bft)
01.06.2013 06:58 11,2 C 10,7 C 91 % 1013,8 hPa 0,0 l/m 0 min 0 min 0,0 UV-I 54 W/m 18,0 km/h (3 Bft)
01.06.2013 07:00 11,2 C 10,7 C 91 % 1013,7 hPa 0,0 l/m 0 min 0 min 0,0 UV-I 58 W/m 15,4 km/h (3 Bft)
01.06.2013 07:02 11,2 C 10,7 C 91 % 1013,9 hPa 0,0 l/m 0 min 0 min 0,0 UV-I 65 W/m 7,7 km/h (2 Bft)
01.06.2013 07:06 11,2 C 10,7 C 91 % 1013,9 hPa 0,0 l/m 0 min 0 min 0,0 UV-I 56 W/m 12,9 km/h (3 Bft)
01.06.2013 07:08 11,2 C 10,7 C 91 % 1013,9 hPa 0,0 l/m 0 min 0 min 0,0 UV-I 67 W/m 28,3 km/h (4 Bft)
01.06.2013 07:10 11,2 C 11,2 C 91 % 1014,0 hPa 0,0 l/m 0 min 0 min 0,0 UV-I 69 W/m 0,0 km/h (0 Bft)
01.06.2013 07:12 11,2 C 11,2 C 91 % 1014,0 hPa 0,0 l/m 0 min 0 min 0,0 UV-I 74 W/m 7,7 km/h (2 Bft)
01.06.2013 07:14 11,2 C 11,2 C 91 % 1013,9 hPa 0,0 l/m 0 min 0 min 0,0 UV-I 67 W/m 10,3 km/h (2 Bft)
01.06.2013 07:16 11,3 C 11,2 C 91 % 1013,9 hPa 0,0 l/m 0 min 0 min 0,0 UV-I 72 W/m 15,4 km/h (3 Bft)
01.06.2013 07:18 11,3 C 11,2 C 91 % 1014,0 hPa 0,0 l/m 0 min 0 min 0,0 UV-I 70 W/m 0,0 km/h (0 Bft)
01.06.2013 07:20 11,3 C 11,2 C 91 % 1014,0 hPa 0,0 l/m 0 min 0 min 0,0 UV-I 70 W/m 23,2 km/h (4 Bft)
01.06.2013 07:22 11,3 C 11,2 C 91 % 1013,9 hPa 0,0 l/m 0 min 0 min 0,0 UV-I 69 W/m 5,1 km/h (1 Bft)
01.06.2013 07:24 11,3 C 11,2 C 91 % 1014,0 hPa 0,0 l/m 0 min 0 min 0,0 UV-I 69 W/m 7,7 km/h (2 Bft)
01.06.2013 07:26 11,3 C 11,2 C 90 % 1014,0 hPa 0,0 l/m 0 min 0 min 0,0 UV-I 69 W/m 7,7 km/h (2 Bft)
01.06.2013 07:28 11,3 C 11,2 C 90 % 1014,0 hPa 0,0 l/m 0 min 0 min 0,0 UV-I 58 W/m 10,3 km/h (2 Bft)
01.06.2013 07:30 11,3 C 11,2 C 90 % 1014,1 hPa 0,0 l/m 0 min 0 min 0,0 UV-I 51 W/m 5,1 km/h (1 Bft)
01.06.2013 07:32 11,3 C 11,2 C 90 % 1014,0 hPa 0,0 l/m 0 min 0 min 0,0 UV-I 51 W/m 10,3 km/h (2 Bft)
01.06.2013 07:34 11,3 C 11,2 C 90 % 1014,1 hPa 0,0 l/m 0 min 0 min 0,0 UV-I 47 W/m 7,7 km/h (2 Bft)
01.06.2013 07:36 11,3 C 11,2 C 90 % 1014,2 hPa 0,0 l/m 0 min 0 min 0,0 UV-I 46 W/m 12,9 km/h (3 Bft)
01.06.2013 07:38 11,3 C 10,7 C 90 % 1014,2 hPa 0,0 l/m 0 min 0 min 0,0 UV-I 46 W/m 23,2 km/h (4 Bft)
01.06.2013 07:40 11,3 C 10,7 C 90 % 1014,3 hPa 0,0 l/m 0 min 0 min 0,0 UV-I 42 W/m 18,0 km/h (3 Bft)
01.06.2013 07:42 11,3 C 10,7 C 90 % 1014,3 hPa 0,0 l/m 0 min 0 min 0,0 UV-I 42 W/m 10,3 km/h (2 Bft)
01.06.2013 07:44 11,3 C 10,7 C 90 % 1014,3 hPa 0,0 l/m 0 min 0 min 0,0 UV-I 40 W/m 5,1 km/h (1 Bft)
01.06.2013 07:46 11,3 C 10,7 C 90 % 1014,4 hPa 0,0 l/m 0 min 0 min 0,0 UV-I 40 W/m 5,1 km/h (1 Bft)
01.06.2013 07:48 11,3 C 10,7 C 90 % 1014,4 hPa 0,0 l/m 0 min 0 min 0,0 UV-I 40 W/m 0,0 km/h (0 Bft)
01.06.2013 07:50 11,3 C 10,7 C 90 % 1014,4 hPa 0,0 l/m 0 min 0 min 0,0 UV-I 40 W/m 7,7 km/h (2 Bft)
01.06.2013 07:52 11,3 C 10,7 C 90 % 1014,3 hPa 0,0 l/m 0 min 0 min 0,0 UV-I 44 W/m 5,1 km/h (1 Bft)
01.06.2013 07:54 11,3 C 10,7 C 90 % 1014,4 hPa 0,0 l/m 0 min 0 min 0,0 UV-I 44 W/m 7,7 km/h (2 Bft)
01.06.2013 07:56 11,3 C 10,7 C 90 % 1014,4 hPa 0,0 l/m 0 min 0 min 0,0 UV-I 46 W/m 12,9 km/h (3 Bft)
01.06.2013 07:58 11,3 C 10,7 C 90 % 1014,4 hPa 0,0 l/m 0 min 0 min 0,0 UV-I 46 W/m 7,7 km/h (2 Bft)
01.06.2013 08:00 11,3 C 10,7 C 90 % 1014,4 hPa 0,0 l/m 0 min 0 min 0,0 UV-I 46 W/m 2,6 km/h (1 Bft)
01.06.2013 08:02 11,3 C 10,7 C 90 % 1014,4 hPa 0,0 l/m 0 min 0 min 0,0 UV-I 47 W/m 7,7 km/h (2 Bft)
01.06.2013 08:04 11,3 C 10,7 C 90 % 1014,4 hPa 0,0 l/m 0 min 0 min 0,0 UV-I 47 W/m 7,7 km/h (2 Bft)
01.06.2013 08:06 11,3 C 10,7 C 91 % 1014,5 hPa 0,0 l/m 0 min 0 min 0,0 UV-I 49 W/m 7,7 km/h (2 Bft)
01.06.2013 08:08 11,3 C 10,7 C 91 % 1014,5 hPa 0,0 l/m 0 min 0 min 0,0 UV-I 53 W/m 15,4 km/h (3 Bft)
01.06.2013 08:10 11,3 C 10,7 C 91 % 1014,5 hPa 0,0 l/m 0 min 0 min 0,0 UV-I 51 W/m 7,7 km/h (2 Bft)
01.06.2013 08:12 11,3 C 10,7 C 91 % 1014,6 hPa 0,0 l/m 0 min 0 min 0,0 UV-I 54 W/m 15,4 km/h (3 Bft)
01.06.2013 08:14 11,3 C 10,7 C 91 % 1014,6 hPa 0,0 l/m 0 min 0 min 0,0 UV-I 56 W/m 7,7 km/h (2 Bft)
01.06.2013 08:16 11,3 C 10,7 C 91 % 1014,6 hPa 0,0 l/m 0 min 0 min 0,0 UV-I 54 W/m 12,9 km/h (3 Bft)
01.06.2013 08:18 11,3 C 10,7 C 91 % 1014,6 hPa 0,0 l/m 0 min 0 min 0,0 UV-I 53 W/m 7,7 km/h (2 Bft)
01.06.2013 08:20 11,3 C 11,2 C 91 % 1014,6 hPa 0,0 l/m 0 min 0 min 0,0 UV-I 53 W/m 10,3 km/h (2 Bft)
01.06.2013 08:22 11,3 C 11,2 C 91 % 1014,6 hPa 0,0 l/m 0 min 0 min 0,0 UV-I 53 W/m 7,7 km/h (2 Bft)
01.06.2013 08:24 11,3 C 11,2 C 91 % 1014,7 hPa 0,0 l/m 0 min 0 min 0,0 UV-I 56 W/m 15,4 km/h (3 Bft)
01.06.2013 08:26 11,3 C 11,2 C 91 % 1014,7 hPa 0,0 l/m 0 min 0 min 0,0 UV-I 53 W/m 12,9 km/h (3 Bft)
01.06.2013 08:28 11,3 C 11,2 C 91 % 1014,7 hPa 0,0 l/m 0 min 0 min 0,0 UV-I 58 W/m 20,6 km/h (4 Bft)
01.06.2013 08:30 11,3 C 11,2 C 91 % 1014,7 hPa 0,0 l/m 0 min 0 min 0,0 UV-I 58 W/m 12,9 km/h (3 Bft)
01.06.2013 08:32 11,3 C 11,2 C 91 % 1014,7 hPa 0,0 l/m 0 min 0 min 0,0 UV-I 54 W/m 10,3 km/h (2 Bft)
01.06.2013 08:34 11,3 C 10,7 C 91 % 1014,8 hPa 0,0 l/m 0 min 0 min 0,0 UV-I 58 W/m 12,9 km/h (3 Bft)
01.06.2013 08:36 11,3 C 10,7 C 91 % 1014,8 hPa 0,0 l/m 0 min 0 min 0,0 UV-I 58 W/m 15,4 km/h (3 Bft)
01.06.2013 08:38 11,3 C 11,2 C 91 % 1014,8 hPa 0,0 l/m 0 min 0 min 0,0 UV-I 53 W/m 12,9 km/h (3 Bft)
01.06.2013 08:40 11,3 C 11,2 C 91 % 1014,8 hPa 0,0 l/m 0 min 0 min 0,0 UV-I 56 W/m 12,9 km/h (3 Bft)
01.06.2013 08:42 11,3 C 10,7 C 91 % 1014,9 hPa 0,0 l/m 0 min 0 min 0,0 UV-I 53 W/m 12,9 km/h (3 Bft)
01.06.2013 08:44 11,3 C 10,7 C 91 % 1014,9 hPa 0,0 l/m 0 min 0 min 0,0 UV-I 47 W/m 2,6 km/h (1 Bft)
01.06.2013 08:46 11,3 C 10,7 C 91 % 1014,9 hPa 0,0 l/m 0 min 0 min 0,0 UV-I 47 W/m 20,6 km/h (4 Bft)
01.06.2013 08:48 11,3 C 10,7 C 91 % 1014,9 hPa 0,0 l/m 0 min 0 min 0,0 UV-I 53 W/m 12,9 km/h (3 Bft)
01.06.2013 08:50 11,3 C 10,7 C 91 % 1014,9 hPa 0,0 l/m 0 min 0 min 0,0 UV-I 44 W/m 10,3 km/h (2 Bft)
01.06.2013 08:52 11,3 C 10,7 C 91 % 1014,9 hPa 0,0 l/m 0 min 0 min 0,0 UV-I 49 W/m 10,3 km/h (2 Bft)
01.06.2013 08:54 11,3 C 10,7 C 91 % 1014,9 hPa 0,0 l/m 0 min 0 min 0,0 UV-I 51 W/m 10,3 km/h (2 Bft)
01.06.2013 08:56 11,3 C 10,7 C 91 % 1015,0 hPa 0,0 l/m 0 min 0 min 0,0 UV-I 56 W/m 7,7 km/h (2 Bft)
01.06.2013 08:58 11,3 C 10,7 C 91 % 1014,9 hPa 0,0 l/m 0 min 0 min 0,0 UV-I 63 W/m 23,2 km/h (4 Bft)
01.06.2013 09:00 11,2 C 10,7 C 91 % 1015,0 hPa 0,0 l/m 0 min 0 min 0,0 UV-I 67 W/m 12,9 km/h (3 Bft)
01.06.2013 09:02 11,2 C 10,7 C 91 % 1015,0 hPa 0,0 l/m 0 min 0 min 0,0 UV-I 65 W/m 7,7 km/h (2 Bft)
01.06.2013 09:04 11,3 C 10,7 C 91 % 1015,0 hPa 0,0 l/m 0 min 0 min 0,0 UV-I 67 W/m 15,4 km/h (3 Bft)
01.06.2013 09:06 11,2 C 10,7 C 91 % 1015,0 hPa 0,0 l/m 0 min 0 min 0,0 UV-I 63 W/m 12,9 km/h (3 Bft)
01.06.2013 09:08 11,2 C 10,7 C 91 % 1015,0 hPa 0,0 l/m 0 min 0 min 0,0 UV-I 67 W/m 7,7 km/h (2 Bft)
01.06.2013 09:10 11,2 C 11,2 C 91 % 1015,0 hPa 0,0 l/m 0 min 0 min 0,0 UV-I 65 W/m 0,0 km/h (0 Bft)
01.06.2013 09:12 11,2 C 11,2 C 91 % 1015,0 hPa 0,0 l/m 0 min 0 min 0,0 UV-I 74 W/m 5,1 km/h (1 Bft)
01.06.2013 09:14 11,3 C 11,2 C 91 % 1015,0 hPa 0,0 l/m 0 min 0 min 0,0 UV-I 79 W/m 12,9 km/h (3 Bft)
01.06.2013 09:16 11,3 C 11,2 C 91 % 1015,0 hPa 0,0 l/m 0 min 0 min 0,0 UV-I 100 W/m 7,7 km/h (2 Bft)
01.06.2013 09:18 11,3 C 11,2 C 91 % 1015,0 hPa 0,0 l/m 0 min 0 min 0,0 UV-I 95 W/m 10,3 km/h (2 Bft)
01.06.2013 09:20 11,3 C 11,2 C 91 % 1015,0 hPa 0,0 l/m 0 min 0 min 0,0 UV-I 83 W/m 12,9 km/h (3 Bft)
01.06.2013 09:22 11,3 C 11,2 C 91 % 1015,0 hPa 0,0 l/m 0 min 0 min 0,0 UV-I 77 W/m 10,3 km/h (2 Bft)
01.06.2013 09:24 11,3 C 11,2 C 91 % 1015,0 hPa 0,0 l/m 0 min 0 min 0,0 UV-I 79 W/m 2,6 km/h (1 Bft)
01.06.2013 09:26 11,3 C 11,2 C 91 % 1015,0 hPa 0,0 l/m 0 min 0 min 0,0 UV-I 77 W/m 0,0 km/h (0 Bft)
01.06.2013 09:28 11,3 C 11,2 C 91 % 1015,0 hPa 0,0 l/m 0 min 0 min 0,0 UV-I 83 W/m 10,3 km/h (2 Bft)
01.06.2013 09:30 11,3 C 11,2 C 91 % 1015,0 hPa 0,0 l/m 0 min 0 min 0,0 UV-I 84 W/m 18,0 km/h (3 Bft)
01.06.2013 09:32 11,3 C 11,2 C 91 % 1015,0 hPa 0,0 l/m 0 min 0 min 0,0 UV-I 84 W/m 12,9 km/h (3 Bft)
01.06.2013 09:34 11,4 C 11,2 C 91 % 1015,0 hPa 0,0 l/m 0 min 0 min 0,0 UV-I 93 W/m 7,7 km/h (2 Bft)
01.06.2013 09:36 11,3 C 11,2 C 91 % 1015,1 hPa 0,0 l/m 0 min 0 min 0,0 UV-I 165 W/m 10,3 km/h (2 Bft)
01.06.2013 09:38 11,4 C 11,8 C 91 % 1015,0 hPa 0,0 l/m 0 min 0 min 0,0 UV-I 162 W/m 5,1 km/h (1 Bft)
01.06.2013 09:40 11,4 C 11,8 C 91 % 1015,1 hPa 0,0 l/m 0 min 0 min 0,0 UV-I 123 W/m 12,9 km/h (3 Bft)
01.06.2013 09:42 11,4 C 11,8 C 91 % 1015,1 hPa 0,0 l/m 0 min 0 min 0,0 UV-I 102 W/m 10,3 km/h (2 Bft)
01.06.2013 09:44 11,4 C 11,8 C 91 % 1015,1 hPa 0,0 l/m 0 min 0 min 0,0 UV-I 102 W/m 2,6 km/h (1 Bft)
01.06.2013 09:46 11,5 C 11,8 C 91 % 1015,1 hPa 0,0 l/m 0 min 0 min 0,0 UV-I 97 W/m 0,0 km/h (0 Bft)
01.06.2013 09:48 11,5 C 11,8 C 91 % 1015,2 hPa 0,0 l/m 0 min 0 min 0,0 UV-I 139 W/m 7,7 km/h (2 Bft)
01.06.2013 09:50 11,6 C 11,8 C 91 % 1015,1 hPa 0,0 l/m 0 min 0 min 0,0 UV-I 105 W/m 7,7 km/h (2 Bft)
01.06.2013 09:52 11,6 C 11,8 C 91 % 1015,2 hPa 0,0 l/m 0 min 0 min 0,0 UV-I 111 W/m 12,9 km/h (3 Bft)
01.06.2013 09:54 11,6 C 11,8 C 91 % 1015,2 hPa 0,0 l/m 0 min 0 min 0,0 UV-I 104 W/m 7,7 km/h (2 Bft)
01.06.2013 09:56 11,6 C 11,8 C 91 % 1015,1 hPa 0,0 l/m 0 min 0 min 0,0 UV-I 130 W/m 10,3 km/h (2 Bft)
01.06.2013 09:58 11,6 C 11,8 C 90 % 1015,2 hPa 0,0 l/m 0 min 0 min 0,0 UV-I 91 W/m 18,0 km/h (3 Bft)
01.06.2013 10:00 11,6 C 11,2 C 90 % 1015,3 hPa 0,0 l/m 0 min 0 min 0,0 UV-I 54 W/m 7,7 km/h (2 Bft)
01.06.2013 10:02 11,6 C 11,2 C 90 % 1015,3 hPa 0,0 l/m 0 min 0 min 0,0 UV-I 53 W/m 15,4 km/h (3 Bft)
01.06.2013 10:04 11,6 C 11,2 C 90 % 1015,3 hPa 0,0 l/m 0 min 0 min 0,0 UV-I 53 W/m 7,7 km/h (2 Bft)
01.06.2013 10:06 11,6 C 11,2 C 90 % 1015,3 hPa 0,0 l/m 0 min 0 min 0,0 UV-I 90 W/m 10,3 km/h (2 Bft)
01.06.2013 10:08 11,5 C 11,2 C 90 % 1015,4 hPa 0,0 l/m 0 min 0 min 0,0 UV-I 74 W/m 15,4 km/h (3 Bft)
01.06.2013 10:10 11,5 C 11,2 C 90 % 1015,4 hPa 0,0 l/m 0 min 0 min 0,0 UV-I 77 W/m 7,7 km/h (2 Bft)
01.06.2013 10:12 11,5 C 11,2 C 90 % 1015,4 hPa 0,0 l/m 0 min 0 min 0,0 UV-I 91 W/m 15,4 km/h (3 Bft)
01.06.2013 10:14 11,5 C 11,2 C 90 % 1015,4 hPa 0,0 l/m 0 min 0 min 0,0 UV-I 69 W/m 7,7 km/h (2 Bft)
01.06.2013 10:16 11,5 C 11,2 C 90 % 1015,4 hPa 0,0 l/m 0 min 0 min 0,0 UV-I 65 W/m 15,4 km/h (3 Bft)
01.06.2013 10:18 11,5 C 11,2 C 90 % 1015,5 hPa 0,0 l/m 0 min 0 min 0,0 UV-I 86 W/m 15,4 km/h (3 Bft)
01.06.2013 10:20 11,4 C 11,2 C 90 % 1015,5 hPa 0,0 l/m 0 min 0 min 0,0 UV-I 83 W/m 12,9 km/h (3 Bft)
01.06.2013 10:22 11,5 C 11,2 C 90 % 1015,5 hPa 0,0 l/m 0 min 0 min 0,0 UV-I 123 W/m 15,4 km/h (3 Bft)
01.06.2013 10:24 11,5 C 11,8 C 90 % 1015,5 hPa 0,0 l/m 0 min 0 min 0,0 UV-I 149 W/m 0,0 km/h (0 Bft)
01.06.2013 10:26 11,5 C 11,8 C 90 % 1015,5 hPa 0,0 l/m 0 min 0 min 0,0 UV-I 160 W/m 18,0 km/h (3 Bft)
01.06.2013 10:28 11,5 C 11,8 C 90 % 1015,5 hPa 0,0 l/m 0 min 0 min 0,0 UV-I 151 W/m 12,9 km/h (3 Bft)
01.06.2013 10:30 11,5 C 11,8 C 90 % 1015,6 hPa 0,0 l/m 0 min 0 min 0,5 UV-I 183 W/m 20,6 km/h (4 Bft)
01.06.2013 10:32 11,6 C 11,8 C 90 % 1015,5 hPa 0,0 l/m 0 min 0 min 0,0 UV-I 172 W/m 23,2 km/h (4 Bft)
01.06.2013 10:34 11,6 C 12,3 C 90 % 1015,6 hPa 0,0 l/m 0 min 0 min 0,6 UV-I 216 W/m 7,7 km/h (2 Bft)
01.06.2013 10:36 11,6 C 12,3 C 90 % 1015,6 hPa 0,0 l/m 0 min 0 min 0,7 UV-I 237 W/m 15,4 km/h (3 Bft)
01.06.2013 10:38 11,7 C 12,9 C 90 % 1015,6 hPa 0,0 l/m 0 min 0 min 0,7 UV-I 251 W/m 15,4 km/h (3 Bft)
01.06.2013 10:40 11,8 C 12,9 C 90 % 1015,5 hPa 0,0 l/m 0 min 0 min 0,6 UV-I 221 W/m 12,9 km/h (3 Bft)
01.06.2013 10:42 11,9 C 12,9 C 90 % 1015,5 hPa 0,0 l/m 0 min 0 min 0,5 UV-I 190 W/m 10,3 km/h (2 Bft)
01.06.2013 10:44 11,9 C 12,9 C 90 % 1015,6 hPa 0,0 l/m 0 min 0 min 0,5 UV-I 165 W/m 2,6 km/h (1 Bft)
01.06.2013 10:46 12,0 C 12,9 C 90 % 1015,6 hPa 0,0 l/m 0 min 0 min 0,6 UV-I 160 W/m 18,0 km/h (3 Bft)
01.06.2013 10:48 12,1 C 12,9 C 89 % 1015,6 hPa 0,0 l/m 0 min 0 min 0,0 UV-I 151 W/m 10,3 km/h (2 Bft)
01.06.2013 10:50 12,1 C 12,3 C 89 % 1015,6 hPa 0,0 l/m 0 min 0 min 0,0 UV-I 128 W/m 20,6 km/h (4 Bft)
01.06.2013 10:52 12,1 C 12,3 C 89 % 1015,6 hPa 0,0 l/m 0 min 0 min 0,0 UV-I 158 W/m 18,0 km/h (3 Bft)
01.06.2013 10:54 12,2 C 12,3 C 88 % 1015,6 hPa 0,0 l/m 0 min 0 min 0,6 UV-I 178 W/m 18,0 km/h (3 Bft)
01.06.2013 10:56 12,2 C 12,9 C 88 % 1015,6 hPa 0,0 l/m 0 min 0 min 0,8 UV-I 216 W/m 7,7 km/h (2 Bft)
01.06.2013 10:58 12,2 C 12,9 C 88 % 1015,6 hPa 0,0 l/m 0 min 0 min 0,8 UV-I 253 W/m 7,7 km/h (2 Bft)
01.06.2013 11:00 12,3 C 13,4 C 88 % 1015,6 hPa 0,0 l/m 0 min 0 min 0,6 UV-I 239 W/m 7,7 km/h (2 Bft)
01.06.2013 11:02 12,3 C 13,4 C 88 % 1015,6 hPa 0,0 l/m 0 min 0 min 0,8 UV-I 232 W/m 20,6 km/h (4 Bft)
01.06.2013 11:04 12,3 C 12,9 C 88 % 1015,6 hPa 0,0 l/m 0 min 0 min 0,8 UV-I 243 W/m 25,7 km/h (4 Bft)
01.06.2013 11:06 12,4 C 12,9 C 88 % 1015,6 hPa 0,0 l/m 0 min 0 min 0,5 UV-I 218 W/m 12,9 km/h (3 Bft)
01.06.2013 11:08 12,4 C 12,9 C 88 % 1015,6 hPa 0,0 l/m 0 min 0 min 0,6 UV-I 209 W/m 12,9 km/h (3 Bft)
01.06.2013 11:10 12,5 C 13,4 C 88 % 1015,6 hPa 0,0 l/m 0 min 0 min 0,8 UV-I 230 W/m 15,4 km/h (3 Bft)
01.06.2013 11:12 12,6 C 13,4 C 88 % 1015,7 hPa 0,0 l/m 0 min 0 min 0,7 UV-I 229 W/m 20,6 km/h (4 Bft)
01.06.2013 11:14 12,6 C 12,9 C 87 % 1015,7 hPa 0,0 l/m 0 min 0 min 0,5 UV-I 192 W/m 18,0 km/h (3 Bft)
01.06.2013 11:16 12,6 C 12,9 C 87 % 1015,7 hPa 0,0 l/m 0 min 0 min 0,0 UV-I 167 W/m 15,4 km/h (3 Bft)
01.06.2013 11:18 12,6 C 12,9 C 87 % 1015,6 hPa 0,0 l/m 0 min 0 min 0,5 UV-I 149 W/m 10,3 km/h (2 Bft)
01.06.2013 11:20 12,6 C 12,9 C 87 % 1015,7 hPa 0,0 l/m 0 min 0 min 0,0 UV-I 137 W/m 18,0 km/h (3 Bft)
01.06.2013 11:22 12,6 C 12,9 C 86 % 1015,7 hPa 0,0 l/m 0 min 0 min 0,0 UV-I 144 W/m 18,0 km/h (3 Bft)
01.06.2013 11:24 12,6 C 12,3 C 86 % 1015,8 hPa 0,0 l/m 0 min 0 min 0,0 UV-I 158 W/m 15,4 km/h (3 Bft)
01.06.2013 11:26 12,6 C 12,3 C 86 % 1015,7 hPa 0,0 l/m 0 min 0 min 0,0 UV-I 135 W/m 28,3 km/h (4 Bft)
01.06.2013 11:28 12,5 C 12,3 C 86 % 1015,8 hPa 0,0 l/m 0 min 0 min 0,0 UV-I 148 W/m 25,7 km/h (4 Bft)
01.06.2013 11:30 12,4 C 12,3 C 86 % 1015,7 hPa 0,0 l/m 0 min 0 min 0,5 UV-I 171 W/m 15,4 km/h (3 Bft)
01.06.2013 11:32 12,4 C 12,3 C 86 % 1015,8 hPa 0,0 l/m 0 min 0 min 0,5 UV-I 163 W/m 20,6 km/h (4 Bft)
01.06.2013 11:34 12,3 C 12,3 C 86 % 1015,8 hPa 0,0 l/m 0 min 0 min 0,6 UV-I 174 W/m 18,0 km/h (3 Bft)
01.06.2013 11:36 12,3 C 12,3 C 86 % 1015,8 hPa 0,0 l/m 0 min 0 min 0,9 UV-I 207 W/m 12,9 km/h (3 Bft)
01.06.2013 11:38 12,3 C 12,9 C 86 % 1015,8 hPa 0,0 l/m 0 min 0 min 0,9 UV-I 221 W/m 7,7 km/h (2 Bft)
01.06.2013 11:40 12,3 C 12,9 C 86 % 1015,8 hPa 0,0 l/m 0 min 0 min 0,8 UV-I 202 W/m 20,6 km/h (4 Bft)
01.06.2013 11:42 12,4 C 12,9 C 87 % 1015,8 hPa 0,0 l/m 0 min 0 min 0,9 UV-I 216 W/m 10,3 km/h (2 Bft)
01.06.2013 11:44 12,4 C 13,4 C 87 % 1015,8 hPa 0,0 l/m 0 min 0 min 1,2 UV-I 236 W/m 12,9 km/h (3 Bft)
01.06.2013 11:46 12,4 C 13,4 C 87 % 1015,9 hPa 0,0 l/m 0 min 0 min 1,1 UV-I 227 W/m 23,2 km/h (4 Bft)
01.06.2013 11:48 12,5 C 13,4 C 87 % 1015,8 hPa 0,0 l/m 0 min 0 min 1,4 UV-I 278 W/m 7,7 km/h (2 Bft)
01.06.2013 11:50 12,5 C 13,4 C 87 % 1015,8 hPa 0,0 l/m 0 min 0 min 1,4 UV-I 295 W/m 12,9 km/h (3 Bft)
01.06.2013 11:52 12,7 C 14,0 C 87 % 1015,8 hPa 0,0 l/m 0 min 0 min 1,6 UV-I 373 W/m 15,4 km/h (3 Bft)
01.06.2013 11:54 12,8 C 14,6 C 87 % 1015,7 hPa 0,0 l/m 0 min 0 min 1,7 UV-I 401 W/m 12,9 km/h (3 Bft)
01.06.2013 11:56 12,9 C 14,6 C 86 % 1015,8 hPa 0,0 l/m 0 min 0 min 1,4 UV-I 318 W/m 15,4 km/h (3 Bft)
01.06.2013 11:58 13,1 C 14,6 C 85 % 1015,8 hPa 0,0 l/m 0 min 0 min 1,0 UV-I 253 W/m 7,7 km/h (2 Bft)
01.06.2013 12:00 13,2 C 14,0 C 85 % 1015,8 hPa 0,0 l/m 0 min 0 min 0,5 UV-I 186 W/m 15,4 km/h (3 Bft)
01.06.2013 12:02 13,2 C 14,0 C 85 % 1015,9 hPa 0,0 l/m 0 min 0 min 0,9 UV-I 197 W/m 7,7 km/h (2 Bft)
01.06.2013 12:04 13,3 C 14,0 C 86 % 1015,9 hPa 0,0 l/m 0 min 0 min 0,0 UV-I 144 W/m 10,3 km/h (2 Bft)
01.06.2013 12:06 13,3 C 13,4 C 86 % 1016,0 hPa 0,0 l/m 0 min 0 min 0,0 UV-I 148 W/m 10,3 km/h (2 Bft)
01.06.2013 12:08 13,2 C 13,4 C 85 % 1016,0 hPa 0,0 l/m 0 min 0 min 1,1 UV-I 292 W/m 10,3 km/h (2 Bft)
01.06.2013 12:10 13,1 C 14,0 C 85 % 1016,0 hPa 0,0 l/m 0 min 0 min 1,5 UV-I 323 W/m 12,9 km/h (3 Bft)
01.06.2013 12:12 13,2 C 14,6 C 87 % 1016,1 hPa 0,0 l/m 0 min 0 min 1,6 UV-I 350 W/m 5,1 km/h (1 Bft)
01.06.2013 12:14 13,3 C 14,6 C 87 % 1016,0 hPa 0,0 l/m 0 min 0 min 0,9 UV-I 214 W/m 2,6 km/h (1 Bft)
01.06.2013 12:16 13,3 C 14,6 C 86 % 1016,1 hPa 0,0 l/m 0 min 0 min 0,5 UV-I 171 W/m 10,3 km/h (2 Bft)
01.06.2013 12:18 13,3 C 14,0 C 86 % 1016,1 hPa 0,0 l/m 0 min 0 min 0,0 UV-I 155 W/m 15,4 km/h (3 Bft)
01.06.2013 12:20 13,3 C 13,4 C 85 % 1016,2 hPa 0,0 l/m 0 min 0 min 0,0 UV-I 142 W/m 15,4 km/h (3 Bft)
01.06.2013 12:22 13,2 C 13,4 C 85 % 1016,2 hPa 0,0 l/m 0 min 0 min 0,6 UV-I 186 W/m 10,3 km/h (2 Bft)
01.06.2013 12:24 13,1 C 13,4 C 85 % 1016,2 hPa 0,0 l/m 0 min 0 min 0,5 UV-I 181 W/m 10,3 km/h (2 Bft)
01.06.2013 12:26 13,0 C 13,4 C 85 % 1016,2 hPa 0,0 l/m 0 min 0 min 0,6 UV-I 183 W/m 10,3 km/h (2 Bft)
01.06.2013 12:28 12,9 C 13,4 C 85 % 1016,2 hPa 0,0 l/m 0 min 0 min 0,7 UV-I 197 W/m 0,0 km/h (0 Bft)
01.06.2013 12:30 12,9 C 13,4 C 86 % 1016,2 hPa 0,0 l/m 0 min 0 min 1,1 UV-I 255 W/m 10,3 km/h (2 Bft)
01.06.2013 12:32 12,8 C 13,4 C 86 % 1016,3 hPa 0,0 l/m 0 min 0 min 0,9 UV-I 241 W/m 15,4 km/h (3 Bft)
01.06.2013 12:34 12,8 C 13,4 C 86 % 1016,2 hPa 0,0 l/m 0 min 0 min 0,7 UV-I 229 W/m 15,4 km/h (3 Bft)
01.06.2013 12:36 12,8 C 13,4 C 86 % 1016,2 hPa 0,0 l/m 0 min 0 min 0,9 UV-I 232 W/m 7,7 km/h (2 Bft)
01.06.2013 12:38 12,8 C 13,4 C 87 % 1016,3 hPa 0,0 l/m 0 min 0 min 1,2 UV-I 281 W/m 10,3 km/h (2 Bft)
01.06.2013 12:40 12,9 C 14,0 C 86 % 1016,3 hPa 0,0 l/m 0 min 0 min 1,8 UV-I 332 W/m 23,2 km/h (4 Bft)
01.06.2013 12:42 13,0 C 14,6 C 86 % 1016,3 hPa 0,0 l/m 0 min 0 min 2,6 UV-I 431 W/m 15,4 km/h (3 Bft)
01.06.2013 12:44 13,3 C 15,7 C 86 % 1016,2 hPa 0,0 l/m 0 min 0 min 3,2 UV-I 431 W/m 12,9 km/h (3 Bft)
01.06.2013 12:46 13,7 C 16,2 C 86 % 1016,2 hPa 0,0 l/m 2 min 0 min 2,7 UV-I 592 W/m 10,3 km/h (2 Bft)
01.06.2013 12:48 13,9 C 15,7 C 84 % 1016,3 hPa 0,0 l/m 0 min 0 min 1,1 UV-I 269 W/m 20,6 km/h (4 Bft)
01.06.2013 12:50 13,8 C 15,1 C 82 % 1016,3 hPa 0,0 l/m 0 min 0 min 1,0 UV-I 269 W/m 15,4 km/h (3 Bft)
01.06.2013 12:52 13,8 C 15,1 C 83 % 1016,3 hPa 0,0 l/m 0 min 0 min 1,4 UV-I 309 W/m 7,7 km/h (2 Bft)
01.06.2013 12:54 13,7 C 15,1 C 83 % 1016,3 hPa 0,0 l/m 0 min 0 min 1,5 UV-I 345 W/m 15,4 km/h (3 Bft)
01.06.2013 12:56 13,7 C 14,6 C 83 % 1016,3 hPa 0,0 l/m 0 min 0 min 1,3 UV-I 281 W/m 20,6 km/h (4 Bft)
01.06.2013 12:58 13,6 C 14,6 C 83 % 1016,4 hPa 0,0 l/m 0 min 0 min 1,5 UV-I 313 W/m 12,9 km/h (3 Bft)
01.06.2013 13:00 13,6 C 14,6 C 84 % 1016,3 hPa 0,0 l/m 0 min 0 min 1,3 UV-I 302 W/m 12,9 km/h (3 Bft)
01.06.2013 13:02 13,5 C 14,6 C 84 % 1016,4 hPa 0,0 l/m 0 min 0 min 1,6 UV-I 350 W/m 15,4 km/h (3 Bft)
01.06.2013 13:04 13,4 C 14,6 C 84 % 1016,4 hPa 0,0 l/m 0 min 0 min 1,4 UV-I 318 W/m 23,2 km/h (4 Bft)
01.06.2013 13:06 13,4 C 14,6 C 84 % 1016,4 hPa 0,0 l/m 0 min 0 min 1,0 UV-I 248 W/m 15,4 km/h (3 Bft)
01.06.2013 13:08 13,4 C 14,6 C 84 % 1016,4 hPa 0,0 l/m 0 min 0 min 1,0 UV-I 221 W/m 10,3 km/h (2 Bft)
01.06.2013 13:10 13,4 C 14,6 C 84 % 1016,4 hPa 0,0 l/m 0 min 0 min 1,0 UV-I 248 W/m 18,0 km/h (3 Bft)
01.06.2013 13:12 13,4 C 14,6 C 84 % 1016,5 hPa 0,0 l/m 0 min 0 min 1,0 UV-I 241 W/m 12,9 km/h (3 Bft)
01.06.2013 13:14 13,4 C 14,6 C 84 % 1016,5 hPa 0,0 l/m 0 min 0 min 1,1 UV-I 253 W/m 23,2 km/h (4 Bft)
01.06.2013 13:16 13,4 C 14,6 C 84 % 1016,5 hPa 0,0 l/m 0 min 0 min 1,1 UV-I 258 W/m 10,3 km/h (2 Bft)
01.06.2013 13:18 13,4 C 14,6 C 84 % 1016,5 hPa 0,0 l/m 0 min 0 min 1,5 UV-I 325 W/m 15,4 km/h (3 Bft)
01.06.2013 13:20 13,4 C 14,6 C 84 % 1016,5 hPa 0,0 l/m 0 min 0 min 1,6 UV-I 336 W/m 12,9 km/h (3 Bft)
01.06.2013 13:22 13,5 C 15,1 C 84 % 1016,5 hPa 0,0 l/m 0 min 0 min 2,2 UV-I 392 W/m 20,6 km/h (4 Bft)
01.06.2013 13:24 13,6 C 15,7 C 83 % 1016,5 hPa 0,0 l/m 0 min 0 min 2,3 UV-I 408 W/m 15,4 km/h (3 Bft)
01.06.2013 13:26 13,6 C 15,7 C 83 % 1016,5 hPa 0,0 l/m 0 min 0 min 1,2 UV-I 287 W/m 23,2 km/h (4 Bft)
01.06.2013 13:28 13,8 C 15,1 C 84 % 1016,5 hPa 0,0 l/m 0 min 0 min 0,9 UV-I 229 W/m 10,3 km/h (2 Bft)
01.06.2013 13:30 13,8 C 15,1 C 83 % 1016,6 hPa 0,0 l/m 0 min 0 min 1,0 UV-I 237 W/m 10,3 km/h (2 Bft)
01.06.2013 13:32 13,7 C 15,1 C 83 % 1016,6 hPa 0,0 l/m 0 min 0 min 1,3 UV-I 323 W/m 12,9 km/h (3 Bft)
01.06.2013 13:34 13,7 C 15,1 C 83 % 1016,6 hPa 0,0 l/m 0 min 0 min 1,3 UV-I 274 W/m 7,7 km/h (2 Bft)
01.06.2013 13:36 13,6 C 14,6 C 82 % 1016,7 hPa 0,0 l/m 0 min 0 min 1,4 UV-I 299 W/m 28,3 km/h (4 Bft)
01.06.2013 13:38 13,6 C 14,6 C 83 % 1016,6 hPa 0,0 l/m 0 min 0 min 1,1 UV-I 264 W/m 18,0 km/h (3 Bft)
01.06.2013 13:40 13,6 C 14,6 C 83 % 1016,6 hPa 0,0 l/m 0 min 0 min 1,1 UV-I 251 W/m 25,7 km/h (4 Bft)
01.06.2013 13:42 13,6 C 14,6 C 83 % 1016,7 hPa 0,0 l/m 0 min 0 min 1,4 UV-I 339 W/m 25,7 km/h (4 Bft)
01.06.2013 13:44 13,6 C 15,1 C 83 % 1016,7 hPa 0,0 l/m 0 min 0 min 1,3 UV-I 290 W/m 15,4 km/h (3 Bft)
01.06.2013 13:46 13,7 C 14,6 C 83 % 1016,7 hPa 0,0 l/m 0 min 0 min 0,9 UV-I 236 W/m 10,3 km/h (2 Bft)
01.06.2013 13:48 13,7 C 14,6 C 83 % 1016,7 hPa 0,0 l/m 0 min 0 min 1,2 UV-I 260 W/m 15,4 km/h (3 Bft)
01.06.2013 13:50 13,6 C 14,6 C 83 % 1016,8 hPa 0,0 l/m 0 min 0 min 1,2 UV-I 272 W/m 15,4 km/h (3 Bft)
01.06.2013 13:52 13,6 C 14,6 C 83 % 1016,8 hPa 0,0 l/m 0 min 0 min 1,1 UV-I 248 W/m 12,9 km/h (3 Bft)
01.06.2013 13:54 13,6 C 14,0 C 83 % 1016,8 hPa 0,0 l/m 0 min 0 min 0,9 UV-I 227 W/m 23,2 km/h (4 Bft)
01.06.2013 13:56 13,5 C 14,6 C 83 % 1016,9 hPa 0,0 l/m 0 min 0 min 1,0 UV-I 248 W/m 12,9 km/h (3 Bft)
01.06.2013 13:58 13,6 C 14,6 C 84 % 1016,9 hPa 0,0 l/m 0 min 0 min 1,0 UV-I 250 W/m 5,1 km/h (1 Bft)
01.06.2013 14:00 13,7 C 14,6 C 84 % 1016,9 hPa 0,0 l/m 0 min 0 min 1,1 UV-I 274 W/m 5,1 km/h (1 Bft)
01.06.2013 14:02 13,8 C 15,1 C 84 % 1016,9 hPa 0,0 l/m 0 min 0 min 1,3 UV-I 278 W/m 0,0 km/h (0 Bft)
01.06.2013 14:04 13,8 C 15,1 C 82 % 1016,9 hPa 0,0 l/m 0 min 0 min 1,3 UV-I 306 W/m 7,7 km/h (2 Bft)
01.06.2013 14:06 13,8 C 15,1 C 83 % 1016,9 hPa 0,0 l/m 0 min 0 min 1,1 UV-I 251 W/m 7,7 km/h (2 Bft)
01.06.2013 14:08 13,8 C 15,1 C 83 % 1017,0 hPa 0,0 l/m 0 min 0 min 1,4 UV-I 299 W/m 10,3 km/h (2 Bft)
01.06.2013 14:10 13,7 C 15,1 C 82 % 1017,0 hPa 0,0 l/m 0 min 0 min 1,5 UV-I 313 W/m 25,7 km/h (4 Bft)
01.06.2013 14:12 13,6 C 14,6 C 82 % 1017,1 hPa 0,0 l/m 0 min 0 min 1,1 UV-I 248 W/m 25,7 km/h (4 Bft)
01.06.2013 14:14 13,6 C 14,6 C 82 % 1017,1 hPa 0,0 l/m 0 min 0 min 1,3 UV-I 279 W/m 18,0 km/h (3 Bft)
01.06.2013 14:16 13,6 C 14,6 C 82 % 1017,2 hPa 0,0 l/m 0 min 0 min 1,1 UV-I 262 W/m 20,6 km/h (4 Bft)
01.06.2013 14:18 13,6 C 14,6 C 83 % 1017,1 hPa 0,0 l/m 0 min 0 min 1,8 UV-I 364 W/m 12,9 km/h (3 Bft)
01.06.2013 14:20 13,6 C 15,1 C 82 % 1017,0 hPa 0,0 l/m 0 min 0 min 1,4 UV-I 292 W/m 20,6 km/h (4 Bft)
01.06.2013 14:22 13,7 C 15,1 C 82 % 1017,1 hPa 0,0 l/m 0 min 0 min 1,8 UV-I 353 W/m 10,3 km/h (2 Bft)
01.06.2013 14:24 13,7 C 15,1 C 82 % 1017,0 hPa 0,0 l/m 0 min 0 min 1,0 UV-I 243 W/m 10,3 km/h (2 Bft)
01.06.2013 14:26 13,7 C 15,1 C 82 % 1017,1 hPa 0,0 l/m 0 min 0 min 0,9 UV-I 230 W/m 12,9 km/h (3 Bft)
01.06.2013 14:28 13,7 C 14,6 C 82 % 1017,1 hPa 0,0 l/m 0 min 0 min 1,2 UV-I 265 W/m 10,3 km/h (2 Bft)
01.06.2013 14:30 13,7 C 14,6 C 82 % 1017,1 hPa 0,0 l/m 0 min 0 min 0,9 UV-I 234 W/m 18,0 km/h (3 Bft)
01.06.2013 14:32 13,6 C 14,6 C 83 % 1017,2 hPa 0,0 l/m 0 min 0 min 1,0 UV-I 241 W/m 25,7 km/h (4 Bft)
01.06.2013 14:34 13,6 C 14,6 C 83 % 1017,1 hPa 0,0 l/m 0 min 0 min 1,0 UV-I 241 W/m 5,1 km/h (1 Bft)
01.06.2013 14:36 13,6 C 14,6 C 83 % 1017,1 hPa 0,0 l/m 0 min 0 min 1,3 UV-I 285 W/m 10,3 km/h (2 Bft)
01.06.2013 14:38 13,6 C 15,1 C 83 % 1017,1 hPa 0,0 l/m 0 min 0 min 1,3 UV-I 299 W/m 10,3 km/h (2 Bft)
01.06.2013 14:40 13,6 C 14,6 C 83 % 1017,1 hPa 0,0 l/m 0 min 0 min 1,3 UV-I 299 W/m 28,3 km/h (4 Bft)
01.06.2013 14:42 13,6 C 14,6 C 83 % 1017,2 hPa 0,0 l/m 0 min 0 min 1,5 UV-I 325 W/m 10,3 km/h (2 Bft)
01.06.2013 14:44 13,6 C 14,6 C 83 % 1017,1 hPa 0,0 l/m 0 min 0 min 1,7 UV-I 350 W/m 20,6 km/h (4 Bft)
01.06.2013 14:46 13,6 C 14,6 C 83 % 1017,2 hPa 0,0 l/m 0 min 0 min 1,2 UV-I 253 W/m 12,9 km/h (3 Bft)
01.06.2013 14:48 13,7 C 14,6 C 84 % 1017,2 hPa 0,0 l/m 0 min 0 min 0,6 UV-I 197 W/m 15,4 km/h (3 Bft)
01.06.2013 14:50 13,7 C 14,6 C 83 % 1017,2 hPa 0,0 l/m 0 min 0 min 0,7 UV-I 202 W/m 15,4 km/h (3 Bft)
01.06.2013 14:52 13,6 C 14,6 C 83 % 1017,2 hPa 0,0 l/m 0 min 0 min 0,8 UV-I 269 W/m 7,7 km/h (2 Bft)
01.06.2013 14:54 13,6 C 14,6 C 84 % 1017,1 hPa 0,0 l/m 0 min 0 min 1,6 UV-I 371 W/m 20,6 km/h (4 Bft)
01.06.2013 14:56 13,5 C 14,6 C 83 % 1017,1 hPa 0,0 l/m 0 min 0 min 1,3 UV-I 313 W/m 23,2 km/h (4 Bft)
01.06.2013 14:58 13,6 C 14,6 C 83 % 1017,2 hPa 0,0 l/m 0 min 0 min 1,4 UV-I 339 W/m 12,9 km/h (3 Bft)
01.06.2013 15:00 13,6 C 14,6 C 83 % 1017,2 hPa 0,0 l/m 0 min 0 min 1,6 UV-I 364 W/m 28,3 km/h (4 Bft)
01.06.2013 15:02 13,7 C 14,6 C 82 % 1017,1 hPa 0,0 l/m 0 min 0 min 1,4 UV-I 306 W/m 18,0 km/h (3 Bft)
01.06.2013 15:04 13,7 C 14,6 C 82 % 1017,2 hPa 0,0 l/m 0 min 0 min 0,9 UV-I 218 W/m 25,7 km/h (4 Bft)
01.06.2013 15:06 13,6 C 14,0 C 82 % 1017,1 hPa 0,0 l/m 0 min 0 min 0,7 UV-I 216 W/m 18,0 km/h (3 Bft)
01.06.2013 15:08 13,6 C 14,6 C 83 % 1017,2 hPa 0,0 l/m 0 min 0 min 0,8 UV-I 230 W/m 5,1 km/h (1 Bft)
01.06.2013 15:10 13,6 C 14,0 C 83 % 1017,1 hPa 0,0 l/m 0 min 0 min 0,7 UV-I 236 W/m 20,6 km/h (4 Bft)
01.06.2013 15:12 13,5 C 14,0 C 82 % 1017,2 hPa 0,0 l/m 0 min 0 min 1,0 UV-I 260 W/m 20,6 km/h (4 Bft)
01.06.2013 15:14 13,4 C 14,0 C 83 % 1017,3 hPa 0,0 l/m 0 min 0 min 0,8 UV-I 236 W/m 18,0 km/h (3 Bft)
01.06.2013 15:16 13,4 C 14,6 C 84 % 1017,3 hPa 0,0 l/m 0 min 0 min 1,3 UV-I 308 W/m 18,0 km/h (3 Bft)
01.06.2013 15:18 13,5 C 14,6 C 83 % 1017,2 hPa 0,0 l/m 0 min 0 min 1,3 UV-I 316 W/m 10,3 km/h (2 Bft)
01.06.2013 15:20 13,6 C 14,6 C 83 % 1017,3 hPa 0,0 l/m 0 min 0 min 1,3 UV-I 311 W/m 18,0 km/h (3 Bft)
01.06.2013 15:22 13,6 C 15,1 C 83 % 1017,3 hPa 0,0 l/m 0 min 0 min 1,0 UV-I 276 W/m 18,0 km/h (3 Bft)
01.06.2013 15:24 13,7 C 14,6 C 83 % 1017,3 hPa 0,0 l/m 0 min 0 min 0,7 UV-I 211 W/m 15,4 km/h (3 Bft)
01.06.2013 15:26 13,7 C 14,6 C 83 % 1017,2 hPa 0,0 l/m 0 min 0 min 0,6 UV-I 204 W/m 18,0 km/h (3 Bft)
01.06.2013 15:28 13,6 C 14,0 C 82 % 1017,2 hPa 0,0 l/m 0 min 0 min 0,0 UV-I 179 W/m 18,0 km/h (3 Bft)
01.06.2013 15:30 13,6 C 14,0 C 82 % 1017,3 hPa 0,0 l/m 0 min 0 min 0,5 UV-I 193 W/m 12,9 km/h (3 Bft)
01.06.2013 15:32 13,5 C 14,0 C 82 % 1017,3 hPa 0,0 l/m 0 min 0 min 0,8 UV-I 232 W/m 20,6 km/h (4 Bft)
01.06.2013 15:34 13,4 C 14,0 C 82 % 1017,3 hPa 0,0 l/m 0 min 0 min 0,9 UV-I 243 W/m 23,2 km/h (4 Bft)
01.06.2013 15:36 13,4 C 14,0 C 82 % 1017,3 hPa 0,0 l/m 0 min 0 min 0,9 UV-I 244 W/m 18,0 km/h (3 Bft)
01.06.2013 15:38 13,4 C 14,0 C 83 % 1017,3 hPa 0,0 l/m 0 min 0 min 0,8 UV-I 234 W/m 2,6 km/h (1 Bft)
01.06.2013 15:40 13,4 C 14,0 C 83 % 1017,4 hPa 0,0 l/m 0 min 0 min 0,8 UV-I 243 W/m 12,9 km/h (3 Bft)
01.06.2013 15:42 13,5 C 14,0 C 83 % 1017,4 hPa 0,0 l/m 0 min 0 min 0,7 UV-I 218 W/m 18,0 km/h (3 Bft)
01.06.2013 15:44 13,4 C 14,0 C 82 % 1017,4 hPa 0,0 l/m 0 min 0 min 0,6 UV-I 202 W/m 18,0 km/h (3 Bft)
01.06.2013 15:46 13,4 C 14,0 C 82 % 1017,4 hPa 0,0 l/m 0 min 0 min 0,5 UV-I 188 W/m 15,4 km/h (3 Bft)
01.06.2013 15:48 13,4 C 14,0 C 82 % 1017,4 hPa 0,0 l/m 0 min 0 min 0,5 UV-I 186 W/m 23,2 km/h (4 Bft)
01.06.2013 15:50 13,4 C 14,0 C 82 % 1017,5 hPa 0,0 l/m 0 min 0 min 0,7 UV-I 214 W/m 15,4 km/h (3 Bft)
01.06.2013 15:52 13,4 C 14,0 C 82 % 1017,5 hPa 0,0 l/m 0 min 0 min 0,0 UV-I 181 W/m 12,9 km/h (3 Bft)
01.06.2013 15:54 13,4 C 14,0 C 82 % 1017,6 hPa 0,0 l/m 0 min 0 min 0,0 UV-I 172 W/m 18,0 km/h (3 Bft)
01.06.2013 15:56 13,4 C 14,0 C 83 % 1017,5 hPa 0,0 l/m 0 min 0 min 0,7 UV-I 216 W/m 15,4 km/h (3 Bft)
01.06.2013 15:58 13,5 C 14,0 C 83 % 1017,5 hPa 0,0 l/m 0 min 0 min 1,1 UV-I 287 W/m 20,6 km/h (4 Bft)
01.06.2013 16:00 13,6 C 14,6 C 83 % 1017,5 hPa 0,0 l/m 0 min 0 min 0,9 UV-I 287 W/m 12,9 km/h (3 Bft)
01.06.2013 16:02 13,7 C 14,6 C 83 % 1017,5 hPa 0,0 l/m 0 min 0 min 0,6 UV-I 221 W/m 12,9 km/h (3 Bft)
01.06.2013 16:04 13,7 C 14,6 C 83 % 1017,6 hPa 0,0 l/m 0 min 0 min 0,0 UV-I 192 W/m 10,3 km/h (2 Bft)
01.06.2013 16:06 13,8 C 14,6 C 83 % 1017,5 hPa 0,0 l/m 0 min 0 min 0,5 UV-I 193 W/m 10,3 km/h (2 Bft)
01.06.2013 16:08 13,8 C 14,6 C 83 % 1017,6 hPa 0,0 l/m 0 min 0 min 0,5 UV-I 181 W/m 12,9 km/h (3 Bft)
01.06.2013 16:10 13,8 C 14,6 C 83 % 1017,6 hPa 0,0 l/m 0 min 0 min 0,0 UV-I 172 W/m 15,4 km/h (3 Bft)
01.06.2013 16:12 13,8 C 14,0 C 82 % 1017,6 hPa 0,0 l/m 0 min 0 min 0,6 UV-I 220 W/m 10,3 km/h (2 Bft)
01.06.2013 16:14 13,8 C 14,6 C 83 % 1017,6 hPa 0,0 l/m 0 min 0 min 0,7 UV-I 267 W/m 15,4 km/h (3 Bft)
01.06.2013 16:16 13,8 C 14,6 C 83 % 1017,6 hPa 0,0 l/m 0 min 0 min 0,8 UV-I 272 W/m 15,4 km/h (3 Bft)
01.06.2013 16:18 13,8 C 14,6 C 83 % 1017,6 hPa 0,0 l/m 0 min 0 min 0,0 UV-I 183 W/m 7,7 km/h (2 Bft)
01.06.2013 16:20 13,8 C 14,6 C 83 % 1017,6 hPa 0,0 l/m 0 min 0 min 0,6 UV-I 260 W/m 5,1 km/h (1 Bft)
01.06.2013 16:22 13,9 C 14,6 C 83 % 1017,5 hPa 0,0 l/m 0 min 0 min 1,0 UV-I 309 W/m 15,4 km/h (3 Bft)
01.06.2013 16:24 14,0 C 15,1 C 82 % 1017,5 hPa 0,0 l/m 0 min 0 min 0,8 UV-I 309 W/m 10,3 km/h (2 Bft)
01.06.2013 16:26 14,0 C 15,1 C 82 % 1017,6 hPa 0,0 l/m 0 min 0 min 0,6 UV-I 223 W/m 20,6 km/h (4 Bft)
01.06.2013 16:28 14,0 C 14,6 C 82 % 1017,5 hPa 0,0 l/m 0 min 0 min 0,6 UV-I 225 W/m 12,9 km/h (3 Bft)
01.06.2013 16:30 14,0 C 14,6 C 81 % 1017,5 hPa 0,0 l/m 0 min 0 min 0,0 UV-I 207 W/m 15,4 km/h (3 Bft)
01.06.2013 16:32 14,0 C 14,6 C 81 % 1017,5 hPa 0,0 l/m 0 min 0 min 0,5 UV-I 221 W/m 2,6 km/h (1 Bft)
01.06.2013 16:34 14,0 C 14,6 C 81 % 1017,6 hPa 0,0 l/m 0 min 0 min 0,6 UV-I 232 W/m 15,4 km/h (3 Bft)
01.06.2013 16:36 14,0 C 14,6 C 80 % 1017,6 hPa 0,0 l/m 0 min 0 min 0,7 UV-I 267 W/m 23,2 km/h (4 Bft)
01.06.2013 16:38 14,0 C 14,6 C 80 % 1017,6 hPa 0,0 l/m 0 min 0 min 0,7 UV-I 255 W/m 5,1 km/h (1 Bft)
01.06.2013 16:40 14,0 C 15,1 C 81 % 1017,6 hPa 0,0 l/m 0 min 0 min 0,7 UV-I 257 W/m 12,9 km/h (3 Bft)
01.06.2013 16:42 14,0 C 15,1 C 80 % 1017,7 hPa 0,0 l/m 0 min 0 min 0,5 UV-I 223 W/m 10,3 km/h (2 Bft)
01.06.2013 16:44 14,0 C 14,6 C 80 % 1017,7 hPa 0,0 l/m 0 min 0 min 0,0 UV-I 178 W/m 15,4 km/h (3 Bft)
01.06.2013 16:46 14,0 C 14,0 C 80 % 1017,7 hPa 0,0 l/m 0 min 0 min 0,0 UV-I 151 W/m 23,2 km/h (4 Bft)
01.06.2013 16:48 14,0 C 14,0 C 80 % 1017,7 hPa 0,0 l/m 0 min 0 min 0,0 UV-I 142 W/m 12,9 km/h (3 Bft)
01.06.2013 16:50 14,0 C 14,0 C 80 % 1017,7 hPa 0,0 l/m 0 min 0 min 0,0 UV-I 151 W/m 20,6 km/h (4 Bft)
01.06.2013 16:52 14,0 C 13,4 C 80 % 1017,7 hPa 0,0 l/m 0 min 0 min 0,0 UV-I 162 W/m 20,6 km/h (4 Bft)
01.06.2013 16:54 14,0 C 13,4 C 80 % 1017,7 hPa 0,0 l/m 0 min 0 min 0,0 UV-I 160 W/m 18,0 km/h (3 Bft)
01.06.2013 16:56 14,0 C 13,4 C 80 % 1017,8 hPa 0,0 l/m 0 min 0 min 0,0 UV-I 190 W/m 20,6 km/h (4 Bft)
01.06.2013 16:58 14,0 C 13,4 C 80 % 1017,7 hPa 0,0 l/m 0 min 0 min 0,0 UV-I 202 W/m 12,9 km/h (3 Bft)
01.06.2013 17:00 13,9 C 14,0 C 80 % 1017,7 hPa 0,0 l/m 0 min 0 min 0,0 UV-I 216 W/m 15,4 km/h (3 Bft)
01.06.2013 17:02 13,9 C 14,0 C 80 % 1017,8 hPa 0,0 l/m 0 min 0 min 0,5 UV-I 229 W/m 10,3 km/h (2 Bft)
01.06.2013 17:04 13,9 C 14,0 C 80 % 1017,8 hPa 0,0 l/m 0 min 0 min 0,0 UV-I 206 W/m 25,7 km/h (4 Bft)
01.06.2013 17:06 13,8 C 14,0 C 80 % 1017,8 hPa 0,0 l/m 0 min 0 min 0,0 UV-I 160 W/m 28,3 km/h (4 Bft)
01.06.2013 17:08 13,8 C 13,4 C 80 % 1017,7 hPa 0,0 l/m 0 min 0 min 0,0 UV-I 151 W/m 18,0 km/h (3 Bft)
01.06.2013 17:10 13,8 C 13,4 C 80 % 1017,8 hPa 0,0 l/m 0 min 0 min 0,0 UV-I 171 W/m 7,7 km/h (2 Bft)
01.06.2013 17:12 13,8 C 14,0 C 81 % 1017,8 hPa 0,0 l/m 0 min 0 min 0,0 UV-I 169 W/m 10,3 km/h (2 Bft)
01.06.2013 17:14 13,8 C 13,4 C 81 % 1017,8 hPa 0,0 l/m 0 min 0 min 0,0 UV-I 179 W/m 25,7 km/h (4 Bft)
01.06.2013 17:16 13,7 C 13,4 C 81 % 1017,7 hPa 0,0 l/m 0 min 0 min 0,0 UV-I 206 W/m 12,9 km/h (3 Bft)
01.06.2013 17:18 13,7 C 13,4 C 81 % 1017,8 hPa 0,0 l/m 0 min 0 min 0,0 UV-I 162 W/m 23,2 km/h (4 Bft)
01.06.2013 17:20 13,7 C 13,4 C 81 % 1017,8 hPa 0,0 l/m 0 min 0 min 0,0 UV-I 156 W/m 15,4 km/h (3 Bft)
01.06.2013 17:22 13,7 C 13,4 C 81 % 1017,8 hPa 0,0 l/m 0 min 0 min 0,0 UV-I 148 W/m 2,6 km/h (1 Bft)
01.06.2013 17:24 13,6 C 13,4 C 82 % 1017,8 hPa 0,0 l/m 0 min 0 min 0,0 UV-I 141 W/m 18,0 km/h (3 Bft)
01.06.2013 17:26 13,6 C 12,9 C 81 % 1017,8 hPa 0,0 l/m 0 min 0 min 0,0 UV-I 139 W/m 23,2 km/h (4 Bft)
01.06.2013 17:28 13,5 C 12,9 C 81 % 1017,9 hPa 0,0 l/m 0 min 0 min 0,0 UV-I 123 W/m 15,4 km/h (3 Bft)
01.06.2013 17:30 13,5 C 12,9 C 82 % 1017,9 hPa 0,0 l/m 0 min 0 min 0,0 UV-I 148 W/m 10,3 km/h (2 Bft)
01.06.2013 17:32 13,4 C 12,9 C 82 % 1017,9 hPa 0,0 l/m 0 min 0 min 0,0 UV-I 158 W/m 12,9 km/h (3 Bft)
01.06.2013 17:34 13,4 C 13,4 C 82 % 1017,9 hPa 0,0 l/m 0 min 0 min 0,5 UV-I 271 W/m 28,3 km/h (4 Bft)
01.06.2013 17:36 13,3 C 13,4 C 82 % 1017,8 hPa 0,0 l/m 0 min 0 min 0,7 UV-I 306 W/m 23,2 km/h (4 Bft)
01.06.2013 17:38 13,3 C 13,4 C 82 % 1017,9 hPa 0,0 l/m 2 min 0 min 0,5 UV-I 318 W/m 18,0 km/h (3 Bft)
01.06.2013 17:40 13,2 C 13,4 C 83 % 1017,9 hPa 0,0 l/m 0 min 0 min 0,5 UV-I 297 W/m 28,3 km/h (4 Bft)
01.06.2013 17:42 13,2 C 14,0 C 83 % 1017,8 hPa 0,0 l/m 2 min 0 min 0,7 UV-I 341 W/m 23,2 km/h (4 Bft)
01.06.2013 17:44 13,2 C 14,0 C 83 % 1017,8 hPa 0,0 l/m 0 min 0 min 0,0 UV-I 274 W/m 25,7 km/h (4 Bft)
01.06.2013 17:46 13,2 C 14,0 C 83 % 1017,8 hPa 0,0 l/m 0 min 0 min 0,5 UV-I 278 W/m 25,7 km/h (4 Bft)
01.06.2013 17:48 13,3 C 14,0 C 83 % 1017,8 hPa 0,0 l/m 2 min 0 min 0,6 UV-I 362 W/m 25,7 km/h (4 Bft)
01.06.2013 17:50 13,3 C 14,0 C 83 % 1017,8 hPa 0,0 l/m 0 min 0 min 0,6 UV-I 295 W/m 28,3 km/h (4 Bft)
01.06.2013 17:52 13,4 C 14,6 C 83 % 1017,8 hPa 0,0 l/m 2 min 0 min 0,6 UV-I 343 W/m 25,7 km/h (4 Bft)
01.06.2013 17:54 13,4 C 14,6 C 82 % 1017,9 hPa 0,0 l/m 2 min 0 min 0,8 UV-I 343 W/m 20,6 km/h (4 Bft)
01.06.2013 17:56 13,5 C 14,6 C 82 % 1017,9 hPa 0,0 l/m 0 min 0 min 0,5 UV-I 269 W/m 25,7 km/h (4 Bft)
01.06.2013 17:58 13,6 C 14,0 C 82 % 1017,8 hPa 0,0 l/m 0 min 0 min 0,0 UV-I 225 W/m 25,7 km/h (4 Bft)
01.06.2013 18:00 13,6 C 14,0 C 82 % 1017,8 hPa 0,0 l/m 0 min 0 min 0,0 UV-I 221 W/m 30,9 km/h (5 Bft)
01.06.2013 18:02 13,6 C 14,0 C 82 % 1017,8 hPa 0,0 l/m 0 min 0 min 0,0 UV-I 258 W/m 15,4 km/h (3 Bft)
01.06.2013 18:04 13,6 C 14,0 C 82 % 1017,9 hPa 0,0 l/m 0 min 0 min 0,0 UV-I 230 W/m 20,6 km/h (4 Bft)
01.06.2013 18:06 13,6 C 14,0 C 82 % 1017,9 hPa 0,0 l/m 0 min 0 min 0,0 UV-I 234 W/m 20,6 km/h (4 Bft)
01.06.2013 18:08 13,6 C 14,0 C 82 % 1017,8 hPa 0,0 l/m 0 min 0 min 0,0 UV-I 186 W/m 20,6 km/h (4 Bft)
01.06.2013 18:10 13,6 C 13,4 C 81 % 1017,9 hPa 0,0 l/m 0 min 0 min 0,0 UV-I 214 W/m 23,2 km/h (4 Bft)
01.06.2013 18:12 13,5 C 13,4 C 82 % 1017,9 hPa 0,0 l/m 0 min 0 min 0,0 UV-I 207 W/m 23,2 km/h (4 Bft)
01.06.2013 18:14 13,6 C 14,0 C 82 % 1017,9 hPa 0,0 l/m 2 min 0 min 0,5 UV-I 299 W/m 12,9 km/h (3 Bft)
01.06.2013 18:16 13,6 C 14,0 C 82 % 1017,9 hPa 0,0 l/m 0 min 0 min 0,5 UV-I 251 W/m 28,3 km/h (4 Bft)
01.06.2013 18:18 13,6 C 14,0 C 82 % 1017,9 hPa 0,0 l/m 2 min 0 min 0,6 UV-I 425 W/m 18,0 km/h (3 Bft)
01.06.2013 18:20 13,7 C 14,0 C 82 % 1017,9 hPa 0,0 l/m 2 min 0 min 0,0 UV-I 371 W/m 25,7 km/h (4 Bft)
01.06.2013 18:22 13,7 C 14,0 C 82 % 1018,0 hPa 0,0 l/m 2 min 0 min 0,0 UV-I 320 W/m 18,0 km/h (3 Bft)
01.06.2013 18:24 13,8 C 14,0 C 81 % 1017,9 hPa 0,0 l/m 2 min 0 min 0,0 UV-I 322 W/m 20,6 km/h (4 Bft)
01.06.2013 18:26 13,8 C 14,0 C 81 % 1017,9 hPa 0,0 l/m 2 min 0 min 0,0 UV-I 323 W/m 20,6 km/h (4 Bft)
01.06.2013 18:28 13,8 C 14,0 C 81 % 1018,0 hPa 0,0 l/m 2 min 0 min 0,0 UV-I 283 W/m 23,2 km/h (4 Bft)
01.06.2013 18:30 14,0 C 14,6 C 81 % 1017,9 hPa 0,0 l/m 0 min 0 min 0,0 UV-I 223 W/m 30,9 km/h (5 Bft)
01.06.2013 18:32 14,0 C 14,6 C 81 % 1018,0 hPa 0,0 l/m 0 min 0 min 0,0 UV-I 232 W/m 12,9 km/h (3 Bft)
01.06.2013 18:34 14,0 C 14,6 C 81 % 1017,9 hPa 0,0 l/m 2 min 0 min 0,0 UV-I 350 W/m 15,4 km/h (3 Bft)
01.06.2013 18:36 14,0 C 14,6 C 80 % 1017,9 hPa 0,0 l/m 2 min 0 min 0,0 UV-I 364 W/m 23,2 km/h (4 Bft)
01.06.2013 18:38 14,0 C 14,6 C 80 % 1018,1 hPa 0,0 l/m 2 min 0 min 0,0 UV-I 278 W/m 18,0 km/h (3 Bft)
01.06.2013 18:40 14,2 C 15,1 C 80 % 1018,0 hPa 0,0 l/m 2 min 0 min 0,0 UV-I 274 W/m 20,6 km/h (4 Bft)
01.06.2013 18:42 14,3 C 15,1 C 80 % 1018,0 hPa 0,0 l/m 2 min 0 min 0,0 UV-I 243 W/m 15,4 km/h (3 Bft)
01.06.2013 18:44 14,3 C 14,6 C 80 % 1018,0 hPa 0,0 l/m 2 min 0 min 0,0 UV-I 232 W/m 18,0 km/h (3 Bft)
01.06.2013 18:46 14,3 C 14,6 C 80 % 1018,0 hPa 0,0 l/m 0 min 0 min 0,0 UV-I 218 W/m 15,4 km/h (3 Bft)
01.06.2013 18:48 14,3 C 14,6 C 80 % 1018,0 hPa 0,0 l/m 2 min 0 min 0,0 UV-I 244 W/m 20,6 km/h (4 Bft)
01.06.2013 18:50 14,2 C 14,6 C 80 % 1018,0 hPa 0,0 l/m 0 min 0 min 0,0 UV-I 192 W/m 18,0 km/h (3 Bft)
01.06.2013 18:52 14,1 C 14,0 C 80 % 1017,9 hPa 0,0 l/m 0 min 0 min 0,0 UV-I 165 W/m 12,9 km/h (3 Bft)
01.06.2013 18:54 14,2 C 14,0 C 80 % 1018,0 hPa 0,0 l/m 0 min 0 min 0,0 UV-I 163 W/m 23,2 km/h (4 Bft)
01.06.2013 18:56 14,2 C 14,0 C 80 % 1018,0 hPa 0,0 l/m 0 min 0 min 0,0 UV-I 128 W/m 23,2 km/h (4 Bft)
01.06.2013 18:58 14,2 C 14,0 C 81 % 1018,0 hPa 0,0 l/m 0 min 0 min 0,0 UV-I 123 W/m 12,9 km/h (3 Bft)
01.06.2013 19:00 14,2 C 14,0 C 81 % 1018,1 hPa 0,0 l/m 0 min 0 min 0,0 UV-I 132 W/m 15,4 km/h (3 Bft)
01.06.2013 19:02 14,2 C 14,0 C 81 % 1018,1 hPa 0,0 l/m 0 min 0 min 0,0 UV-I 113 W/m 12,9 km/h (3 Bft)
01.06.2013 19:04 14,2 C 14,0 C 81 % 1018,1 hPa 0,0 l/m 0 min 0 min 0,0 UV-I 132 W/m 23,2 km/h (4 Bft)
01.06.2013 19:06 14,2 C 13,4 C 80 % 1018,1 hPa 0,0 l/m 0 min 0 min 0,0 UV-I 111 W/m 20,6 km/h (4 Bft)
01.06.2013 19:08 14,2 C 13,4 C 80 % 1018,1 hPa 0,0 l/m 0 min 0 min 0,0 UV-I 88 W/m 25,7 km/h (4 Bft)
01.06.2013 19:10 14,2 C 13,4 C 80 % 1018,1 hPa 0,0 l/m 0 min 0 min 0,0 UV-I 90 W/m 15,4 km/h (3 Bft)
01.06.2013 19:12 14,2 C 13,4 C 80 % 1018,1 hPa 0,0 l/m 0 min 0 min 0,0 UV-I 86 W/m 15,4 km/h (3 Bft)
01.06.2013 19:14 14,2 C 13,4 C 80 % 1018,2 hPa 0,0 l/m 0 min 0 min 0,0 UV-I 81 W/m 23,2 km/h (4 Bft)
01.06.2013 19:16 14,2 C 13,4 C 80 % 1018,3 hPa 0,0 l/m 0 min 0 min 0,0 UV-I 79 W/m 20,6 km/h (4 Bft)
01.06.2013 19:18 14,2 C 13,4 C 80 % 1018,3 hPa 0,0 l/m 0 min 0 min 0,0 UV-I 83 W/m 18,0 km/h (3 Bft)
01.06.2013 19:20 14,2 C 13,4 C 80 % 1018,2 hPa 0,0 l/m 0 min 0 min 0,0 UV-I 79 W/m 28,3 km/h (4 Bft)
01.06.2013 19:22 14,2 C 13,4 C 80 % 1018,4 hPa 0,0 l/m 0 min 0 min 0,0 UV-I 76 W/m 20,6 km/h (4 Bft)
01.06.2013 19:24 14,1 C 13,4 C 79 % 1018,3 hPa 0,0 l/m 0 min 0 min 0,0 UV-I 74 W/m 20,6 km/h (4 Bft)
01.06.2013 19:26 14,0 C 13,4 C 80 % 1018,4 hPa 0,0 l/m 0 min 0 min 0,0 UV-I 76 W/m 20,6 km/h (4 Bft)
01.06.2013 19:28 14,0 C 13,4 C 80 % 1018,4 hPa 0,0 l/m 0 min 0 min 0,0 UV-I 76 W/m 23,2 km/h (4 Bft)
01.06.2013 19:30 14,0 C 13,4 C 80 % 1018,4 hPa 0,0 l/m 0 min 0 min 0,0 UV-I 74 W/m 18,0 km/h (3 Bft)
01.06.2013 19:32 14,0 C 12,9 C 80 % 1018,5 hPa 0,0 l/m 0 min 0 min 0,0 UV-I 77 W/m 18,0 km/h (3 Bft)
01.06.2013 19:34 14,0 C 12,9 C 80 % 1018,5 hPa 0,0 l/m 0 min 0 min 0,0 UV-I 93 W/m 20,6 km/h (4 Bft)
01.06.2013 19:36 14,0 C 12,9 C 79 % 1018,5 hPa 0,0 l/m 0 min 0 min 0,0 UV-I 90 W/m 25,7 km/h (4 Bft)
01.06.2013 19:38 13,9 C 12,9 C 79 % 1018,5 hPa 0,0 l/m 0 min 0 min 0,0 UV-I 100 W/m 30,9 km/h (5 Bft)
01.06.2013 19:40 13,8 C 12,9 C 80 % 1018,5 hPa 0,0 l/m 0 min 0 min 0,0 UV-I 107 W/m 28,3 km/h (4 Bft)
01.06.2013 19:42 13,8 C 12,9 C 80 % 1018,6 hPa 0,0 l/m 0 min 0 min 0,0 UV-I 114 W/m 25,7 km/h (4 Bft)
01.06.2013 19:44 13,7 C 12,9 C 80 % 1018,6 hPa 0,0 l/m 0 min 0 min 0,0 UV-I 111 W/m 25,7 km/h (4 Bft)
01.06.2013 19:46 13,7 C 12,9 C 80 % 1018,6 hPa 0,0 l/m 0 min 0 min 0,0 UV-I 116 W/m 23,2 km/h (4 Bft)
01.06.2013 19:48 13,6 C 12,9 C 80 % 1018,7 hPa 0,0 l/m 0 min 0 min 0,0 UV-I 88 W/m 28,3 km/h (4 Bft)
01.06.2013 19:50 13,6 C 12,9 C 80 % 1018,6 hPa 0,0 l/m 0 min 0 min 0,0 UV-I 81 W/m 28,3 km/h (4 Bft)
01.06.2013 19:52 13,5 C 12,3 C 81 % 1018,6 hPa 0,0 l/m 0 min 0 min 0,0 UV-I 86 W/m 23,2 km/h (4 Bft)
01.06.2013 19:54 13,4 C 12,3 C 81 % 1018,7 hPa 0,0 l/m 0 min 0 min 0,0 UV-I 79 W/m 25,7 km/h (4 Bft)
01.06.2013 19:56 13,3 C 12,3 C 81 % 1018,7 hPa 0,0 l/m 0 min 0 min 0,0 UV-I 69 W/m 28,3 km/h (4 Bft)
01.06.2013 19:58 13,3 C 12,3 C 81 % 1018,7 hPa 0,0 l/m 0 min 0 min 0,0 UV-I 56 W/m 30,9 km/h (5 Bft)
01.06.2013 20:00 13,2 C 12,3 C 82 % 1018,8 hPa 0,0 l/m 0 min 0 min 0,0 UV-I 58 W/m 23,2 km/h (4 Bft)
01.06.2013 20:02 13,2 C 12,3 C 82 % 1018,8 hPa 0,0 l/m 0 min 0 min 0,0 UV-I 54 W/m 28,3 km/h (4 Bft)
01.06.2013 20:04 13,2 C 12,3 C 82 % 1018,9 hPa 0,0 l/m 0 min 0 min 0,0 UV-I 49 W/m 28,3 km/h (4 Bft)
01.06.2013 20:06 13,1 C 11,8 C 82 % 1018,8 hPa 0,0 l/m 0 min 0 min 0,0 UV-I 49 W/m 36,0 km/h (5 Bft)
01.06.2013 20:08 13,0 C 11,8 C 82 % 1018,9 hPa 0,0 l/m 0 min 0 min 0,0 UV-I 32 W/m 28,3 km/h (4 Bft)
01.06.2013 20:10 12,9 C 11,8 C 82 % 1018,9 hPa 0,0 l/m 0 min 0 min 0,0 UV-I 30 W/m 23,2 km/h (4 Bft)
01.06.2013 20:12 12,9 C 11,8 C 83 % 1018,9 hPa 0,0 l/m 0 min 0 min 0,0 UV-I 30 W/m 25,7 km/h (4 Bft)
01.06.2013 20:14 12,8 C 11,8 C 83 % 1018,9 hPa 0,0 l/m 0 min 0 min 0,0 UV-I 28 W/m 23,2 km/h (4 Bft)
01.06.2013 20:16 12,8 C 11,8 C 83 % 1019,0 hPa 0,0 l/m 0 min 0 min 0,0 UV-I 32 W/m 30,9 km/h (5 Bft)
01.06.2013 20:18 12,7 C 11,8 C 83 % 1019,1 hPa 0,0 l/m 0 min 0 min 0,0 UV-I 26 W/m 23,2 km/h (4 Bft)
01.06.2013 20:20 12,7 C 11,8 C 83 % 1019,2 hPa 0,0 l/m 0 min 0 min 0,0 UV-I 23 W/m 20,6 km/h (4 Bft)
01.06.2013 20:22 12,6 C 11,8 C 83 % 1019,2 hPa 0,0 l/m 0 min 0 min 0,0 UV-I 19 W/m 23,2 km/h (4 Bft)
01.06.2013 20:24 12,6 C 11,8 C 83 % 1019,2 hPa 0,0 l/m 0 min 0 min 0,0 UV-I 19 W/m 18,0 km/h (3 Bft)
01.06.2013 20:26 12,5 C 11,2 C 83 % 1019,3 hPa 0,0 l/m 0 min 0 min 0,0 UV-I 19 W/m 28,3 km/h (4 Bft)
01.06.2013 20:28 12,4 C 11,2 C 84 % 1019,3 hPa 0,0 l/m 0 min 0 min 0,0 UV-I 16 W/m 28,3 km/h (4 Bft)
01.06.2013 20:30 12,4 C 11,2 C 84 % 1019,4 hPa 0,0 l/m 0 min 0 min 0,0 UV-I 14 W/m 36,0 km/h (5 Bft)
01.06.2013 20:32 12,3 C 11,2 C 84 % 1019,3 hPa 0,0 l/m 0 min 0 min 0,0 UV-I 12 W/m 20,6 km/h (4 Bft)
01.06.2013 20:34 12,3 C 11,2 C 84 % 1019,4 hPa 0,0 l/m 0 min 0 min 0,0 UV-I 12 W/m 20,6 km/h (4 Bft)
01.06.2013 20:36 12,2 C 11,2 C 84 % 1019,4 hPa 0,0 l/m 0 min 0 min 0,0 UV-I 12 W/m 25,7 km/h (4 Bft)
01.06.2013 20:38 12,2 C 11,2 C 84 % 1019,4 hPa 0,0 l/m 0 min 0 min 0,0 UV-I 11 W/m 18,0 km/h (3 Bft)
01.06.2013 20:40 12,2 C 11,2 C 84 % 1019,4 hPa 0,0 l/m 0 min 0 min 0,0 UV-I 9 W/m 20,6 km/h (4 Bft)
01.06.2013 20:42 12,1 C 11,2 C 85 % 1019,4 hPa 0,0 l/m 0 min 0 min 0,0 UV-I 9 W/m 20,6 km/h (4 Bft)
01.06.2013 20:44 12,1 C 11,2 C 85 % 1019,5 hPa 0,0 l/m 0 min 0 min 0,0 UV-I 9 W/m 30,9 km/h (5 Bft)
01.06.2013 20:46 12,0 C 11,2 C 85 % 1019,5 hPa 0,0 l/m 0 min 0 min 0,0 UV-I 7 W/m 25,7 km/h (4 Bft)
01.06.2013 20:48 11,9 C 11,2 C 85 % 1019,5 hPa 0,0 l/m 0 min 0 min 0,0 UV-I 7 W/m 0,0 km/h (0 Bft)
01.06.2013 20:50 11,9 C 11,2 C 86 % 1019,5 hPa 0,0 l/m 0 min 0 min 0,0 UV-I 7 W/m 15,4 km/h (3 Bft)
01.06.2013 20:52 11,9 C 11,2 C 86 % 1019,5 hPa 0,0 l/m 0 min 0 min 0,0 UV-I 7 W/m 20,6 km/h (4 Bft)
01.06.2013 20:54 11,9 C 11,2 C 86 % 1019,5 hPa 0,0 l/m 0 min 0 min 0,0 UV-I 7 W/m 15,4 km/h (3 Bft)
01.06.2013 20:56 11,8 C 11,2 C 86 % 1019,6 hPa 0,0 l/m 0 min 0 min 0,0 UV-I 7 W/m 20,6 km/h (4 Bft)
01.06.2013 20:58 11,8 C 10,7 C 86 % 1019,6 hPa 0,0 l/m 0 min 0 min 0,0 UV-I 7 W/m 12,9 km/h (3 Bft)
01.06.2013 21:00 11,8 C 10,7 C 86 % 1019,7 hPa 0,0 l/m 0 min 0 min 0,0 UV-I 5 W/m 15,4 km/h (3 Bft)
01.06.2013 21:02 11,8 C 10,7 C 86 % 1019,6 hPa 0,0 l/m 0 min 0 min 0,0 UV-I 5 W/m 15,4 km/h (3 Bft)
01.06.2013 21:04 11,8 C 10,7 C 86 % 1019,7 hPa 0,0 l/m 0 min 0 min 0,0 UV-I 5 W/m 0,0 km/h (0 Bft)
01.06.2013 21:06 11,7 C 10,7 C 87 % 1019,7 hPa 0,0 l/m 0 min 0 min 0,0 UV-I 5 W/m 20,6 km/h (4 Bft)
01.06.2013 21:08 11,7 C 10,7 C 87 % 1019,7 hPa 0,0 l/m 0 min 0 min 0,0 UV-I 5 W/m 28,3 km/h (4 Bft)
01.06.2013 21:10 11,7 C 10,7 C 86 % 1019,8 hPa 0,0 l/m 0 min 0 min 0,0 UV-I 0 W/m 25,7 km/h (4 Bft)
01.06.2013 21:12 11,7 C 10,7 C 86 % 1019,8 hPa 0,0 l/m 0 min 0 min 0,0 UV-I 0 W/m 25,7 km/h (4 Bft)
01.06.2013 21:14 11,6 C 10,7 C 87 % 1019,8 hPa 0,0 l/m 0 min 0 min 0,0 UV-I 0 W/m 15,4 km/h (3 Bft)
01.06.2013 21:16 11,6 C 10,7 C 87 % 1019,9 hPa 0,0 l/m 0 min 0 min 0,0 UV-I 0 W/m 12,9 km/h (3 Bft)
01.06.2013 21:18 11,6 C 10,7 C 87 % 1019,9 hPa 0,0 l/m 0 min 0 min 0,0 UV-I 0 W/m 20,6 km/h (4 Bft)
01.06.2013 21:20 11,6 C 10,7 C 87 % 1019,9 hPa 0,0 l/m 0 min 0 min 0,0 UV-I 0 W/m 12,9 km/h (3 Bft)
01.06.2013 21:22 11,6 C 10,7 C 87 % 1019,9 hPa 0,0 l/m 0 min 0 min 0,0 UV-I 0 W/m 5,1 km/h (1 Bft)
01.06.2013 21:24 11,6 C 10,7 C 87 % 1020,0 hPa 0,0 l/m 0 min 0 min 0,0 UV-I 0 W/m 23,2 km/h (4 Bft)
01.06.2013 21:26 11,5 C 10,7 C 87 % 1020,0 hPa 0,0 l/m 0 min 0 min 0,0 UV-I 0 W/m 18,0 km/h (3 Bft)
01.06.2013 21:28 11,5 C 10,7 C 87 % 1020,1 hPa 0,0 l/m 0 min 0 min 0,0 UV-I 0 W/m 12,9 km/h (3 Bft)
01.06.2013 21:30 11,5 C 10,7 C 87 % 1020,0 hPa 0,0 l/m 0 min 0 min 0,0 UV-I 0 W/m 12,9 km/h (3 Bft)
01.06.2013 21:32 11,5 C 10,7 C 87 % 1020,1 hPa 0,0 l/m 0 min 0 min 0,0 UV-I 0 W/m 7,7 km/h (2 Bft)
01.06.2013 21:34 11,5 C 10,7 C 87 % 1020,1 hPa 0,0 l/m 0 min 0 min 0,0 UV-I 0 W/m 10,3 km/h (2 Bft)
01.06.2013 21:36 11,4 C 10,7 C 87 % 1020,2 hPa 0,0 l/m 0 min 0 min 0,0 UV-I 0 W/m 7,7 km/h (2 Bft)
01.06.2013 21:38 11,4 C 10,7 C 88 % 1020,2 hPa 0,0 l/m 0 min 0 min 0,0 UV-I 0 W/m 25,7 km/h (4 Bft)
01.06.2013 21:40 11,4 C 10,7 C 87 % 1020,1 hPa 0,0 l/m 0 min 0 min 0,0 UV-I 0 W/m 15,4 km/h (3 Bft)
01.06.2013 21:42 11,4 C 10,7 C 87 % 1020,1 hPa 0,0 l/m 0 min 0 min 0,0 UV-I 0 W/m 5,1 km/h (1 Bft)
01.06.2013 21:44 11,4 C 10,7 C 87 % 1020,1 hPa 0,0 l/m 0 min 0 min 0,0 UV-I 0 W/m 15,4 km/h (3 Bft)
01.06.2013 21:46 11,4 C 10,7 C 87 % 1020,2 hPa 0,0 l/m 0 min 0 min 0,0 UV-I 0 W/m 15,4 km/h (3 Bft)
01.06.2013 21:48 11,4 C 10,7 C 88 % 1020,2 hPa 0,0 l/m 0 min 0 min 0,0 UV-I 0 W/m 20,6 km/h (4 Bft)
01.06.2013 21:50 11,4 C 10,7 C 87 % 1020,2 hPa 0,0 l/m 0 min 0 min 0,0 UV-I 0 W/m 12,9 km/h (3 Bft)
01.06.2013 21:52 11,4 C 10,7 C 87 % 1020,2 hPa 0,0 l/m 0 min 0 min 0,0 UV-I 0 W/m 15,4 km/h (3 Bft)
01.06.2013 21:54 11,3 C 10,7 C 87 % 1020,3 hPa 0,0 l/m 0 min 0 min 0,0 UV-I 0 W/m 15,4 km/h (3 Bft)
01.06.2013 21:56 11,3 C 10,7 C 87 % 1020,4 hPa 0,0 l/m 0 min 0 min 0,0 UV-I 0 W/m 12,9 km/h (3 Bft)
01.06.2013 21:58 11,3 C 10,7 C 87 % 1020,3 hPa 0,0 l/m 0 min 0 min 0,0 UV-I 0 W/m 12,9 km/h (3 Bft)
01.06.2013 22:00 11,3 C 10,7 C 87 % 1020,4 hPa 0,0 l/m 0 min 0 min 0,0 UV-I 0 W/m 15,4 km/h (3 Bft)
01.06.2013 22:02 11,3 C 10,7 C 87 % 1020,4 hPa 0,0 l/m 0 min 0 min 0,0 UV-I 0 W/m 10,3 km/h (2 Bft)
01.06.2013 22:04 11,3 C 10,7 C 87 % 1020,4 hPa 0,0 l/m 0 min 0 min 0,0 UV-I 0 W/m 20,6 km/h (4 Bft)
01.06.2013 22:06 11,4 C 10,7 C 87 % 1020,5 hPa 0,0 l/m 0 min 0 min 0,0 UV-I 0 W/m 5,1 km/h (1 Bft)
01.06.2013 22:08 11,3 C 10,7 C 87 % 1020,5 hPa 0,0 l/m 0 min 0 min 0,0 UV-I 0 W/m 12,9 km/h (3 Bft)
01.06.2013 22:10 11,3 C 10,7 C 87 % 1020,4 hPa 0,0 l/m 0 min 0 min 0,0 UV-I 0 W/m 7,7 km/h (2 Bft)
01.06.2013 22:12 11,3 C 10,7 C 87 % 1020,5 hPa 0,0 l/m 0 min 0 min 0,0 UV-I 0 W/m 7,7 km/h (2 Bft)
01.06.2013 22:14 11,3 C 10,7 C 87 % 1020,5 hPa 0,0 l/m 0 min 0 min 0,0 UV-I 0 W/m 7,7 km/h (2 Bft)
01.06.2013 22:16 11,3 C 10,7 C 87 % 1020,5 hPa 0,0 l/m 0 min 0 min 0,0 UV-I 0 W/m 12,9 km/h (3 Bft)
01.06.2013 22:18 11,3 C 10,7 C 87 % 1020,5 hPa 0,0 l/m 0 min 0 min 0,0 UV-I 0 W/m 7,7 km/h (2 Bft)
01.06.2013 22:20 11,3 C 10,7 C 88 % 1020,5 hPa 0,0 l/m 0 min 0 min 0,0 UV-I 0 W/m 7,7 km/h (2 Bft)
01.06.2013 22:22 11,3 C 10,7 C 88 % 1020,6 hPa 0,0 l/m 0 min 0 min 0,0 UV-I 0 W/m 10,3 km/h (2 Bft)
01.06.2013 22:24 11,3 C 10,7 C 88 % 1020,5 hPa 0,0 l/m 0 min 0 min 0,0 UV-I 0 W/m 10,3 km/h (2 Bft)
01.06.2013 22:26 11,3 C 10,7 C 88 % 1020,6 hPa 0,0 l/m 0 min 0 min 0,0 UV-I 0 W/m 5,1 km/h (1 Bft)
01.06.2013 22:28 11,3 C 10,7 C 88 % 1020,6 hPa 0,0 l/m 0 min 0 min 0,0 UV-I 0 W/m 0,0 km/h (0 Bft)
01.06.2013 22:30 11,3 C 10,7 C 88 % 1020,5 hPa 0,0 l/m 0 min 0 min 0,0 UV-I 0 W/m 12,9 km/h (3 Bft)
01.06.2013 22:32 11,3 C 10,1 C 88 % 1020,5 hPa 0,0 l/m 0 min 0 min 0,0 UV-I 0 W/m 10,3 km/h (2 Bft)
01.06.2013 22:34 11,3 C 10,1 C 88 % 1020,5 hPa 0,0 l/m 0 min 0 min 0,0 UV-I 0 W/m 7,7 km/h (2 Bft)
01.06.2013 22:36 11,3 C 10,1 C 88 % 1020,6 hPa 0,0 l/m 0 min 0 min 0,0 UV-I 0 W/m 10,3 km/h (2 Bft)
01.06.2013 22:38 11,2 C 10,1 C 88 % 1020,6 hPa 0,0 l/m 0 min 0 min 0,0 UV-I 0 W/m 15,4 km/h (3 Bft)
01.06.2013 22:40 11,2 C 10,1 C 87 % 1020,7 hPa 0,0 l/m 0 min 0 min 0,0 UV-I 0 W/m 7,7 km/h (2 Bft)
01.06.2013 22:42 11,2 C 10,1 C 87 % 1020,6 hPa 0,0 l/m 0 min 0 min 0,0 UV-I 0 W/m 2,6 km/h (1 Bft)
01.06.2013 22:44 11,2 C 10,1 C 87 % 1020,6 hPa 0,0 l/m 0 min 0 min 0,0 UV-I 0 W/m 5,1 km/h (1 Bft)
01.06.2013 22:46 11,2 C 10,1 C 87 % 1020,6 hPa 0,0 l/m 0 min 0 min 0,0 UV-I 0 W/m 2,6 km/h (1 Bft)
01.06.2013 22:48 11,1 C 10,1 C 87 % 1020,6 hPa 0,0 l/m 0 min 0 min 0,0 UV-I 0 W/m 12,9 km/h (3 Bft)
01.06.2013 22:50 11,1 C 10,1 C 87 % 1020,6 hPa 0,0 l/m 0 min 0 min 0,0 UV-I 0 W/m 18,0 km/h (3 Bft)
01.06.2013 22:52 11,1 C 10,1 C 87 % 1020,7 hPa 0,0 l/m 0 min 0 min 0,0 UV-I 0 W/m 12,9 km/h (3 Bft)
01.06.2013 22:54 11,1 C 10,1 C 87 % 1020,7 hPa 0,0 l/m 0 min 0 min 0,0 UV-I 0 W/m 5,1 km/h (1 Bft)
01.06.2013 22:56 11,1 C 10,1 C 87 % 1020,7 hPa 0,0 l/m 0 min 0 min 0,0 UV-I 0 W/m 0,0 km/h (0 Bft)
01.06.2013 22:58 11,0 C 10,1 C 87 % 1020,7 hPa 0,0 l/m 0 min 0 min 0,0 UV-I 0 W/m 0,0 km/h (0 Bft)
01.06.2013 23:00 11,0 C 9,6 C 87 % 1020,7 hPa 0,0 l/m 0 min 0 min 0,0 UV-I 0 W/m 0,0 km/h (0 Bft)
01.06.2013 23:02 11,0 C 9,6 C 87 % 1020,8 hPa 0,0 l/m 0 min 0 min 0,0 UV-I 0 W/m 2,6 km/h (1 Bft)
01.06.2013 23:04 10,9 C 9,6 C 87 % 1020,8 hPa 0,0 l/m 0 min 0 min 0,0 UV-I 0 W/m 0,0 km/h (0 Bft)
01.06.2013 23:06 10,9 C 9,6 C 87 % 1020,8 hPa 0,0 l/m 0 min 0 min 0,0 UV-I 0 W/m 7,7 km/h (2 Bft)
01.06.2013 23:08 10,9 C 9,6 C 87 % 1020,8 hPa 0,0 l/m 0 min 0 min 0,0 UV-I 0 W/m 0,0 km/h (0 Bft)
01.06.2013 23:10 10,9 C 9,6 C 87 % 1020,8 hPa 0,0 l/m 0 min 0 min 0,0 UV-I 0 W/m 7,7 km/h (2 Bft)
01.06.2013 23:12 10,8 C 9,6 C 87 % 1020,8 hPa 0,0 l/m 0 min 0 min 0,0 UV-I 0 W/m 0,0 km/h (0 Bft)
01.06.2013 23:14 10,8 C 9,6 C 87 % 1020,9 hPa 0,0 l/m 0 min 0 min 0,0 UV-I 0 W/m 0,0 km/h (0 Bft)
01.06.2013 23:16 10,8 C 9,0 C 87 % 1020,9 hPa 0,0 l/m 0 min 0 min 0,0 UV-I 0 W/m 0,0 km/h (0 Bft)
01.06.2013 23:18 10,7 C 9,0 C 86 % 1020,9 hPa 0,0 l/m 0 min 0 min 0,0 UV-I 0 W/m 5,1 km/h (1 Bft)
01.06.2013 23:20 10,7 C 9,0 C 86 % 1021,0 hPa 0,0 l/m 0 min 0 min 0,0 UV-I 0 W/m 2,6 km/h (1 Bft)
01.06.2013 23:22 10,7 C 9,0 C 86 % 1020,9 hPa 0,0 l/m 0 min 0 min 0,0 UV-I 0 W/m 0,0 km/h (0 Bft)
01.06.2013 23:24 10,7 C 9,0 C 86 % 1021,0 hPa 0,0 l/m 0 min 0 min 0,0 UV-I 0 W/m 0,0 km/h (0 Bft)
01.06.2013 23:26 10,6 C 9,0 C 86 % 1021,0 hPa 0,0 l/m 0 min 0 min 0,0 UV-I 0 W/m 0,0 km/h (0 Bft)
01.06.2013 23:28 10,6 C 9,0 C 86 % 1021,0 hPa 0,0 l/m 0 min 0 min 0,0 UV-I 0 W/m 0,0 km/h (0 Bft)
01.06.2013 23:30 10,6 C 9,0 C 86 % 1021,0 hPa 0,0 l/m 0 min 0 min 0,0 UV-I 0 W/m 0,0 km/h (0 Bft)
01.06.2013 23:32 10,5 C 8,4 C 87 % 1021,0 hPa 0,0 l/m 0 min 0 min 0,0 UV-I 0 W/m 0,0 km/h (0 Bft)
01.06.2013 23:34 10,5 C 8,4 C 87 % 1021,0 hPa 0,0 l/m 0 min 0 min 0,0 UV-I 0 W/m 5,1 km/h (1 Bft)
01.06.2013 23:36 10,4 C 8,4 C 87 % 1021,1 hPa 0,0 l/m 0 min 0 min 0,0 UV-I 0 W/m 0,0 km/h (0 Bft)
01.06.2013 23:38 10,4 C 8,4 C 86 % 1021,1 hPa 0,0 l/m 0 min 0 min 0,0 UV-I 0 W/m 0,0 km/h (0 Bft)
01.06.2013 23:40 10,3 C 8,4 C 86 % 1021,2 hPa 0,0 l/m 0 min 0 min 0,0 UV-I 0 W/m 0,0 km/h (0 Bft)
01.06.2013 23:42 10,3 C 8,4 C 87 % 1021,2 hPa 0,0 l/m 0 min 0 min 0,0 UV-I 0 W/m 0,0 km/h (0 Bft)
01.06.2013 23:44 10,2 C 8,4 C 87 % 1021,2 hPa 0,0 l/m 0 min 0 min 0,0 UV-I 0 W/m 0,0 km/h (0 Bft)
01.06.2013 23:46 10,2 C 8,4 C 87 % 1021,2 hPa 0,0 l/m 0 min 0 min 0,0 UV-I 0 W/m 0,0 km/h (0 Bft)
01.06.2013 23:48 10,2 C 8,4 C 87 % 1021,2 hPa 0,0 l/m 0 min 0 min 0,0 UV-I 0 W/m 2,6 km/h (1 Bft)
01.06.2013 23:50 10,1 C 8,4 C 87 % 1021,2 hPa 0,0 l/m 0 min 0 min 0,0 UV-I 0 W/m 0,0 km/h (0 Bft)
01.06.2013 23:52 10,1 C 8,4 C 87 % 1021,2 hPa 0,0 l/m 0 min 0 min 0,0 UV-I 0 W/m 0,0 km/h (0 Bft)
01.06.2013 23:54 10,0 C 8,4 C 87 % 1021,2 hPa 0,0 l/m 0 min 0 min 0,0 UV-I 0 W/m 0,0 km/h (0 Bft)
01.06.2013 23:56 9,9 C 7,9 C 87 % 1021,2 hPa 0,0 l/m 0 min 0 min 0,0 UV-I 0 W/m 0,0 km/h (0 Bft)
01.06.2013 23:58 9,9 C 7,9 C 87 % 1021,2 hPa 0,0 l/m 0 min 0 min 0,0 UV-I 0 W/m 7,7 km/h (2 Bft)
_ Min-Zeit 23:56 23:56 19:24 00:00 - - - - - 01:18
Minimum _ 9,9 C 7,9 C 79 % 1011,9 hPa - - - - - 0,0 km/h (0 Bft)
_ Max-Zeit 18:42 12:46 05:58 23:40 00:00 12:46 00:00 12:44 12:46 20:06
Maximum _ 14,3 C 16,2 C 91 % 1021,2 hPa 0,0 l/m 2 min 0 min 3,2 UV-I 592 W/m 36,0 km/h
N (5 Bft)
Durchschnitt _ 12,4 C 12,1 C 87 % 1016,0 hPa #0,0 l/m #40 min. #0 min. 1,0 UV-I 159 W/m 13,2 km/h (3 Bft)
© 2013 W. Hausmann